Wetterdaten: Donnerstag, 06.09.2018
Datum Zeit Temp. Aussen Temp. o. S. +5cm Feuchte Auss Luftdruck Regen Sonnenschein Regendauer Solar Windben Empfang
06.09.2018 00:00 20,8 C 19,4 C 18,9 C 79 % 1012,4 hPa 0,0 l/m 0 min 0 min 0 W/m 0,0 km/h (0 Bft) 97,87 %
06.09.2018 00:02 20,8 C 19,4 C 18,9 C 79 % 1012,4 hPa 0,0 l/m 0 min 0 min 0 W/m 0,0 km/h (0 Bft) 93,33 %
06.09.2018 00:04 20,8 C 19,4 C 18,9 C 79 % 1012,5 hPa 0,0 l/m 0 min 0 min 0 W/m 0,0 km/h (0 Bft) 97,67 %
06.09.2018 00:08 20,7 C 19,4 C 18,9 C 80 % 1012,5 hPa 0,0 l/m 0 min 0 min 0 W/m 0,0 km/h (0 Bft) 96,84 %
06.09.2018 00:10 20,7 C 19,4 C 19,4 C 80 % 1012,6 hPa 0,0 l/m 0 min 0 min 0 W/m 0,0 km/h (0 Bft) 97,87 %
06.09.2018 00:12 20,7 C 19,4 C 19,4 C 80 % 1012,6 hPa 0,0 l/m 0 min 0 min 0 W/m 0,0 km/h (0 Bft) 97,92 %
06.09.2018 00:14 20,7 C 19,4 C 19,4 C 79 % 1012,6 hPa 0,0 l/m 0 min 0 min 0 W/m 4,5 km/h (1 Bft) 97,92 %
06.09.2018 00:16 20,7 C 19,4 C 19,4 C 79 % 1012,6 hPa 0,0 l/m 0 min 0 min 0 W/m 0,0 km/h (0 Bft) 95,65 %
06.09.2018 00:18 20,6 C 19,4 C 19,4 C 79 % 1012,7 hPa 0,0 l/m 0 min 0 min 0 W/m 2,3 km/h (1 Bft) 97,87 %
06.09.2018 00:20 20,6 C 19,4 C 19,4 C 79 % 1012,7 hPa 0,0 l/m 0 min 0 min 0 W/m 2,3 km/h (1 Bft) 95,74 %
06.09.2018 00:22 20,6 C 19,4 C 19,4 C 79 % 1012,7 hPa 0,0 l/m 0 min 0 min 0 W/m 2,3 km/h (1 Bft) 97,87 %
06.09.2018 00:24 20,6 C 19,4 C 19,4 C 79 % 1012,7 hPa 0,0 l/m 0 min 0 min 0 W/m 2,3 km/h (1 Bft) 97,87 %
06.09.2018 00:26 20,5 C 20,0 C 19,4 C 79 % 1012,7 hPa 0,0 l/m 0 min 0 min 0 W/m 0,0 km/h (0 Bft) 97,87 %
06.09.2018 00:28 20,5 C 19,4 C 19,4 C 79 % 1012,7 hPa 0,0 l/m 0 min 0 min 0 W/m 2,3 km/h (1 Bft) 100,00 %
06.09.2018 00:30 20,5 C 20,0 C 19,4 C 79 % 1012,6 hPa 0,0 l/m 0 min 0 min 0 W/m 2,3 km/h (1 Bft) 100,00 %
06.09.2018 00:32 20,5 C 19,4 C 19,4 C 78 % 1012,7 hPa 0,0 l/m 0 min 0 min 0 W/m 0,0 km/h (0 Bft) 97,87 %
06.09.2018 00:34 20,4 C 19,4 C 19,4 C 78 % 1012,7 hPa 0,0 l/m 0 min 2 min 0 W/m 2,3 km/h (1 Bft) 100,00 %
06.09.2018 00:36 20,4 C 19,4 C 19,4 C 78 % 1012,7 hPa 0,0 l/m 0 min 0 min 0 W/m 0,0 km/h (0 Bft) 100,00 %
06.09.2018 00:38 20,4 C 19,4 C 19,4 C 78 % 1012,7 hPa 0,0 l/m 0 min 0 min 0 W/m 4,5 km/h (1 Bft) 97,87 %
06.09.2018 00:40 20,4 C 20,0 C 19,4 C 78 % 1012,8 hPa 0,0 l/m 0 min 0 min 0 W/m 6,8 km/h (2 Bft) 95,74 %
06.09.2018 00:42 20,4 C 20,0 C 19,4 C 78 % 1012,7 hPa 0,0 l/m 0 min 2 min 0 W/m 4,5 km/h (1 Bft) 100,00 %
06.09.2018 00:44 20,5 C 19,4 C 19,4 C 79 % 1012,7 hPa 0,0 l/m 0 min 0 min 0 W/m 6,8 km/h (2 Bft) 100,00 %
06.09.2018 00:46 20,5 C 19,4 C 19,4 C 79 % 1012,7 hPa 0,0 l/m 0 min 0 min 0 W/m 4,5 km/h (1 Bft) 95,65 %
06.09.2018 00:48 20,5 C 19,4 C 19,4 C 80 % 1012,6 hPa 0,0 l/m 0 min 0 min 0 W/m 11,3 km/h (2 Bft) 95,74 %
06.09.2018 00:50 20,5 C 19,4 C 19,4 C 80 % 1012,7 hPa 0,0 l/m 0 min 2 min 0 W/m 2,3 km/h (1 Bft) 97,87 %
06.09.2018 00:52 20,6 C 19,4 C 19,4 C 81 % 1012,7 hPa 0,0 l/m 0 min 2 min 0 W/m 13,5 km/h (3 Bft) 100,00 %
06.09.2018 00:54 20,6 C 19,4 C 19,4 C 82 % 1012,7 hPa 0,0 l/m 0 min 0 min 0 W/m 4,5 km/h (1 Bft) 97,87 %
06.09.2018 00:56 20,6 C 19,4 C 19,4 C 82 % 1012,6 hPa 0,0 l/m 0 min 0 min 0 W/m 9,0 km/h (2 Bft) 97,87 %
06.09.2018 00:58 20,6 C 19,4 C 18,9 C 83 % 1012,7 hPa 0,0 l/m 0 min 2 min 0 W/m 4,5 km/h (1 Bft) 95,83 %
06.09.2018 01:00 20,6 C 19,4 C 18,9 C 83 % 1012,6 hPa 0,0 l/m 0 min 0 min 0 W/m 2,3 km/h (1 Bft) 97,87 %
06.09.2018 01:02 20,6 C 19,4 C 18,9 C 83 % 1012,6 hPa 0,0 l/m 0 min 2 min 0 W/m 6,8 km/h (2 Bft) 96,00 %
06.09.2018 01:04 20,6 C 18,9 C 18,9 C 83 % 1012,6 hPa 0,0 l/m 0 min 0 min 0 W/m 6,8 km/h (2 Bft) 97,83 %
06.09.2018 01:06 20,5 C 18,9 C 18,9 C 83 % 1012,6 hPa 0,0 l/m 0 min 0 min 0 W/m 4,5 km/h (1 Bft) 95,74 %
06.09.2018 01:08 20,5 C 18,9 C 18,9 C 84 % 1012,7 hPa 0,0 l/m 0 min 0 min 0 W/m 4,5 km/h (1 Bft) 95,83 %
06.09.2018 01:10 20,4 C 18,9 C 18,9 C 84 % 1012,7 hPa 0,0 l/m 0 min 0 min 0 W/m 2,3 km/h (1 Bft) 95,74 %
06.09.2018 01:12 20,4 C 18,9 C 18,9 C 84 % 1012,6 hPa 0,0 l/m 0 min 0 min 0 W/m 2,3 km/h (1 Bft) 95,74 %
06.09.2018 01:14 20,4 C 18,9 C 18,9 C 84 % 1012,7 hPa 0,0 l/m 0 min 0 min 0 W/m 2,3 km/h (1 Bft) 95,65 %
06.09.2018 01:16 20,4 C 18,9 C 18,9 C 84 % 1012,7 hPa 0,0 l/m 0 min 0 min 0 W/m 4,5 km/h (1 Bft) 93,75 %
06.09.2018 01:18 20,4 C 18,9 C 18,9 C 84 % 1012,7 hPa 0,0 l/m 0 min 0 min 0 W/m 4,5 km/h (1 Bft) 97,87 %
06.09.2018 01:20 20,4 C 18,9 C 18,9 C 85 % 1012,9 hPa 0,0 l/m 0 min 2 min 0 W/m 4,5 km/h (1 Bft) 95,74 %
06.09.2018 01:22 20,3 C 18,9 C 18,3 C 85 % 1012,9 hPa 0,0 l/m 0 min 2 min 0 W/m 6,8 km/h (2 Bft) 95,65 %
06.09.2018 01:24 20,3 C 18,3 C 18,3 C 85 % 1012,9 hPa 0,0 l/m 0 min 2 min 0 W/m 4,5 km/h (1 Bft) 95,74 %
06.09.2018 01:26 20,3 C 17,8 C 17,8 C 86 % 1012,9 hPa 0,0 l/m 0 min 2 min 0 W/m 6,8 km/h (2 Bft) 93,62 %
06.09.2018 01:28 20,3 C 17,8 C 17,8 C 86 % 1012,9 hPa 0,2 l/m 0 min 2 min 0 W/m 4,5 km/h (1 Bft) 95,74 %
06.09.2018 01:30 20,3 C 17,2 C 17,2 C 87 % 1012,8 hPa 0,2 l/m 0 min 2 min 0 W/m 4,5 km/h (1 Bft) 91,49 %
06.09.2018 01:32 20,2 C 17,2 C 17,2 C 88 % 1012,8 hPa 0,2 l/m 0 min 2 min 0 W/m 6,8 km/h (2 Bft) 93,62 %
06.09.2018 01:34 20,2 C 17,2 C 17,2 C 88 % 1012,7 hPa 0,8 l/m 0 min 2 min 0 W/m 6,8 km/h (2 Bft) 95,65 %
06.09.2018 01:36 20,1 C 17,2 C 17,2 C 89 % 1012,6 hPa 0,8 l/m 0 min 2 min 0 W/m 4,5 km/h (1 Bft) 95,74 %
06.09.2018 01:38 20,1 C 17,2 C 17,2 C 89 % 1012,6 hPa 0,4 l/m 0 min 2 min 0 W/m 6,8 km/h (2 Bft) 95,74 %
06.09.2018 01:40 20,0 C 17,2 C 17,2 C 89 % 1012,5 hPa 0,0 l/m 0 min 2 min 0 W/m 6,8 km/h (2 Bft) 95,74 %
06.09.2018 01:42 19,9 C 17,2 C 17,2 C 90 % 1012,5 hPa 0,0 l/m 0 min 2 min 0 W/m 6,8 km/h (2 Bft) 95,74 %
06.09.2018 01:44 19,8 C 17,2 C 17,2 C 90 % 1012,5 hPa 0,0 l/m 0 min 2 min 0 W/m 9,0 km/h (2 Bft) 97,87 %
06.09.2018 01:46 19,7 C 17,2 C 17,2 C 90 % 1012,4 hPa 0,0 l/m 0 min 2 min 0 W/m 4,5 km/h (1 Bft) 97,83 %
06.09.2018 01:48 19,7 C 17,2 C 17,2 C 91 % 1012,4 hPa 0,0 l/m 0 min 2 min 0 W/m 6,8 km/h (2 Bft) 97,87 %
06.09.2018 01:50 19,6 C 17,2 C 17,2 C 91 % 1012,3 hPa 0,0 l/m 0 min 2 min 0 W/m 6,8 km/h (2 Bft) 97,87 %
06.09.2018 01:52 19,5 C 17,2 C 17,2 C 91 % 1012,4 hPa 0,0 l/m 0 min 2 min 0 W/m 4,5 km/h (1 Bft) 97,87 %
06.09.2018 01:54 19,4 C 17,2 C 16,7 C 91 % 1012,3 hPa 0,0 l/m 0 min 2 min 0 W/m 4,5 km/h (1 Bft) 97,87 %
06.09.2018 01:56 19,3 C 17,2 C 16,7 C 91 % 1012,3 hPa 0,0 l/m 0 min 2 min 0 W/m 4,5 km/h (1 Bft) 97,87 %
06.09.2018 01:58 19,3 C 17,2 C 16,7 C 92 % 1012,3 hPa 0,0 l/m 0 min 2 min 0 W/m 6,8 km/h (2 Bft) 97,83 %
06.09.2018 02:00 19,3 C 17,2 C 16,7 C 92 % 1012,2 hPa 0,2 l/m 0 min 2 min 0 W/m 9,0 km/h (2 Bft) 97,87 %
06.09.2018 02:02 19,2 C 17,2 C 16,7 C 92 % 1012,2 hPa 0,0 l/m 0 min 2 min 0 W/m 6,8 km/h (2 Bft) 97,87 %
06.09.2018 02:04 19,2 C 17,2 C 16,7 C 92 % 1012,2 hPa 0,0 l/m 0 min 2 min 0 W/m 9,0 km/h (2 Bft) 97,87 %
06.09.2018 02:06 19,1 C 17,2 C 16,7 C 92 % 1012,1 hPa 0,0 l/m 0 min 2 min 0 W/m 13,5 km/h (3 Bft) 97,87 %
06.09.2018 02:08 19,0 C 17,2 C 16,7 C 93 % 1012,0 hPa 0,0 l/m 0 min 2 min 0 W/m 6,8 km/h (2 Bft) 100,00 %
06.09.2018 02:10 19,0 C 17,2 C 16,7 C 93 % 1012,0 hPa 0,0 l/m 0 min 2 min 0 W/m 9,0 km/h (2 Bft) 100,00 %
06.09.2018 02:12 18,9 C 17,2 C 16,7 C 93 % 1012,0 hPa 0,0 l/m 0 min 2 min 0 W/m 9,0 km/h (2 Bft) 100,00 %
06.09.2018 02:14 18,9 C 16,7 C 16,7 C 93 % 1011,9 hPa 0,0 l/m 0 min 2 min 0 W/m 9,0 km/h (2 Bft) 100,00 %
06.09.2018 02:16 18,8 C 17,2 C 16,7 C 93 % 1011,9 hPa 0,0 l/m 0 min 2 min 0 W/m 4,5 km/h (1 Bft) 97,56 %
06.09.2018 02:18 18,8 C 17,2 C 16,7 C 93 % 1011,9 hPa 0,0 l/m 0 min 2 min 0 W/m 6,8 km/h (2 Bft) 100,00 %
06.09.2018 02:20 18,8 C 17,2 C 16,7 C 93 % 1011,9 hPa 0,0 l/m 0 min 2 min 0 W/m 6,8 km/h (2 Bft) 100,00 %
06.09.2018 02:22 18,7 C 16,7 C 16,7 C 93 % 1012,0 hPa 0,0 l/m 0 min 2 min 0 W/m 6,8 km/h (2 Bft) 100,00 %
06.09.2018 02:24 18,7 C 16,7 C 16,7 C 94 % 1011,9 hPa 0,2 l/m 0 min 2 min 0 W/m 4,5 km/h (1 Bft) 95,74 %
06.09.2018 02:26 18,7 C 16,7 C 16,7 C 94 % 1012,0 hPa 0,0 l/m 0 min 2 min 0 W/m 6,8 km/h (2 Bft) 95,65 %
06.09.2018 02:28 18,7 C 16,7 C 16,7 C 94 % 1011,9 hPa 0,0 l/m 0 min 2 min 0 W/m 2,3 km/h (1 Bft) 97,87 %
06.09.2018 02:30 18,6 C 16,7 C 16,7 C 94 % 1011,8 hPa 0,0 l/m 0 min 0 min 0 W/m 4,5 km/h (1 Bft) 97,87 %
06.09.2018 02:32 18,6 C 16,7 C 16,7 C 94 % 1011,8 hPa 0,0 l/m 0 min 2 min 0 W/m 4,5 km/h (1 Bft) 97,87 %
06.09.2018 02:34 18,6 C 16,7 C 16,7 C 94 % 1011,8 hPa 0,0 l/m 0 min 2 min 0 W/m 13,5 km/h (3 Bft) 97,87 %
06.09.2018 02:36 18,6 C 16,7 C 16,7 C 94 % 1011,7 hPa 0,0 l/m 0 min 2 min 0 W/m 6,8 km/h (2 Bft) 95,74 %
06.09.2018 02:38 18,5 C 16,7 C 16,7 C 94 % 1011,7 hPa 0,0 l/m 0 min 2 min 0 W/m 9,0 km/h (2 Bft) 97,83 %
06.09.2018 02:40 18,5 C 16,7 C 16,7 C 94 % 1011,6 hPa 0,0 l/m 0 min 2 min 0 W/m 4,5 km/h (1 Bft) 95,74 %
06.09.2018 02:42 18,5 C 16,7 C 16,7 C 94 % 1011,6 hPa 0,0 l/m 0 min 2 min 0 W/m 6,8 km/h (2 Bft) 97,87 %
06.09.2018 02:44 18,4 C 16,7 C 16,7 C 94 % 1011,6 hPa 0,0 l/m 0 min 2 min 0 W/m 11,3 km/h (2 Bft) 97,87 %
06.09.2018 02:46 18,4 C 16,7 C 16,7 C 94 % 1011,5 hPa 0,0 l/m 0 min 2 min 0 W/m 9,0 km/h (2 Bft) 97,87 %
06.09.2018 02:48 18,4 C 16,7 C 16,7 C 95 % 1011,5 hPa 0,0 l/m 0 min 2 min 0 W/m 13,5 km/h (3 Bft) 97,83 %
06.09.2018 02:50 18,3 C 16,7 C 16,7 C 95 % 1011,4 hPa 0,0 l/m 0 min 2 min 0 W/m 13,5 km/h (3 Bft) 97,87 %
06.09.2018 02:52 18,3 C 16,7 C 16,7 C 95 % 1011,4 hPa 0,0 l/m 0 min 2 min 0 W/m 6,8 km/h (2 Bft) 97,87 %
06.09.2018 02:54 18,3 C 16,7 C 16,7 C 95 % 1011,4 hPa 0,0 l/m 0 min 0 min 0 W/m 4,5 km/h (1 Bft) 97,87 %
06.09.2018 02:56 18,2 C 16,7 C 16,7 C 95 % 1011,4 hPa 0,2 l/m 0 min 2 min 0 W/m 6,8 km/h (2 Bft) 97,87 %
06.09.2018 02:58 18,2 C 16,7 C 16,7 C 95 % 1011,3 hPa 0,0 l/m 0 min 2 min 0 W/m 9,0 km/h (2 Bft) 95,74 %
06.09.2018 03:00 18,2 C 16,7 C 16,7 C 95 % 1011,3 hPa 0,0 l/m 0 min 2 min 0 W/m 6,8 km/h (2 Bft) 97,83 %
06.09.2018 03:02 18,2 C 16,7 C 16,7 C 95 % 1011,3 hPa 0,0 l/m 0 min 2 min 0 W/m 4,5 km/h (1 Bft) 95,74 %
06.09.2018 03:04 18,1 C 16,7 C 16,7 C 95 % 1011,3 hPa 0,0 l/m 0 min 2 min 0 W/m 6,8 km/h (2 Bft) 97,87 %
06.09.2018 03:06 18,1 C 16,7 C 16,1 C 95 % 1011,3 hPa 0,0 l/m 0 min 0 min 0 W/m 2,3 km/h (1 Bft) 97,92 %
06.09.2018 03:08 18,1 C 16,7 C 16,7 C 95 % 1011,4 hPa 0,0 l/m 0 min 0 min 0 W/m 0,0 km/h (0 Bft) 97,92 %
06.09.2018 03:10 18,1 C 16,7 C 16,1 C 95 % 1011,3 hPa 0,0 l/m 0 min 0 min 0 W/m 2,3 km/h (1 Bft) 97,87 %
06.09.2018 03:12 18,0 C 16,7 C 16,1 C 95 % 1011,4 hPa 0,0 l/m 0 min 0 min 0 W/m 0,0 km/h (0 Bft) 100,00 %
06.09.2018 03:14 18,0 C 16,7 C 16,1 C 95 % 1011,4 hPa 0,0 l/m 0 min 2 min 0 W/m 4,5 km/h (1 Bft) 97,87 %
06.09.2018 03:16 18,0 C 16,1 C 16,1 C 95 % 1011,4 hPa 0,0 l/m 0 min 0 min 0 W/m 6,8 km/h (2 Bft) 100,00 %
06.09.2018 03:18 17,9 C 16,1 C 16,1 C 95 % 1011,4 hPa 0,0 l/m 0 min 0 min 0 W/m 2,3 km/h (1 Bft) 100,00 %
06.09.2018 03:20 17,9 C 16,1 C 16,1 C 95 % 1011,4 hPa 0,0 l/m 0 min 0 min 0 W/m 4,5 km/h (1 Bft) 100,00 %
06.09.2018 03:22 17,9 C 16,1 C 16,1 C 95 % 1011,5 hPa 0,0 l/m 0 min 0 min 0 W/m 9,0 km/h (2 Bft) 97,87 %
06.09.2018 03:24 17,9 C 16,1 C 16,1 C 95 % 1011,4 hPa 0,0 l/m 0 min 2 min 0 W/m 9,0 km/h (2 Bft) 100,00 %
06.09.2018 03:26 17,8 C 16,1 C 16,1 C 95 % 1011,4 hPa 0,0 l/m 0 min 0 min 0 W/m 0,0 km/h (0 Bft) 97,92 %
06.09.2018 03:28 17,8 C 16,1 C 16,1 C 95 % 1011,4 hPa 0,0 l/m 0 min 0 min 0 W/m 6,8 km/h (2 Bft) 100,00 %
06.09.2018 03:31 17,8 C 16,1 C 16,1 C 95 % 1011,3 hPa 0,0 l/m 0 min 0 min 0 W/m 4,5 km/h (1 Bft) 100,00 %
06.09.2018 03:32 17,8 C 16,7 C 16,1 C 95 % 1011,3 hPa 0,0 l/m 0 min 0 min 0 W/m 0,0 km/h (0 Bft) 100,00 %
06.09.2018 03:34 17,8 C 16,7 C 16,1 C 95 % 1011,3 hPa 0,0 l/m 0 min 0 min 0 W/m 4,5 km/h (1 Bft) 97,87 %
06.09.2018 03:36 17,8 C 16,7 C 16,1 C 95 % 1011,3 hPa 0,0 l/m 0 min 0 min 0 W/m 4,5 km/h (1 Bft) 97,87 %
06.09.2018 03:38 17,8 C 16,1 C 16,1 C 96 % 1011,2 hPa 0,0 l/m 0 min 0 min 0 W/m 4,5 km/h (1 Bft) 100,00 %
06.09.2018 03:40 17,7 C 16,1 C 16,1 C 96 % 1011,4 hPa 0,0 l/m 0 min 2 min 0 W/m 0,0 km/h (0 Bft) 100,00 %
06.09.2018 03:42 17,7 C 16,7 C 16,1 C 96 % 1011,4 hPa 0,0 l/m 0 min 2 min 0 W/m 2,3 km/h (1 Bft) 97,87 %
06.09.2018 03:44 17,7 C 16,7 C 16,1 C 96 % 1011,4 hPa 0,0 l/m 0 min 2 min 0 W/m 4,5 km/h (1 Bft) 97,83 %
06.09.2018 03:46 17,7 C 16,1 C 16,1 C 96 % 1011,5 hPa 0,0 l/m 0 min 2 min 0 W/m 2,3 km/h (1 Bft) 100,00 %
06.09.2018 03:48 17,7 C 16,1 C 16,1 C 96 % 1011,5 hPa 0,2 l/m 0 min 2 min 0 W/m 0,0 km/h (0 Bft) 97,87 %
06.09.2018 03:50 17,7 C 16,1 C 16,1 C 96 % 1011,4 hPa 0,0 l/m 0 min 2 min 0 W/m 0,0 km/h (0 Bft) 97,87 %
06.09.2018 03:52 17,7 C 16,1 C 16,1 C 96 % 1011,4 hPa 0,0 l/m 0 min 2 min 0 W/m 0,0 km/h (0 Bft) 97,83 %
06.09.2018 03:54 17,7 C 16,1 C 16,1 C 96 % 1011,4 hPa 0,0 l/m 0 min 2 min 0 W/m 0,0 km/h (0 Bft) 97,87 %
06.09.2018 03:56 17,7 C 16,1 C 16,1 C 96 % 1011,5 hPa 0,0 l/m 0 min 2 min 0 W/m 0,0 km/h (0 Bft) 97,87 %
06.09.2018 03:58 17,7 C 16,7 C 16,1 C 96 % 1011,6 hPa 0,0 l/m 0 min 2 min 0 W/m 0,0 km/h (0 Bft) 97,87 %
06.09.2018 04:00 17,7 C 16,7 C 16,1 C 96 % 1011,7 hPa 0,0 l/m 0 min 2 min 0 W/m 0,0 km/h (0 Bft) 100,00 %
06.09.2018 04:05 17,7 C 16,7 C 16,1 C 96 % 1011,8 hPa 0,0 l/m 0 min 5 min 0 W/m 0,0 km/h (0 Bft) 98,25 %
06.09.2018 04:06 17,7 C 16,7 C 16,7 C 96 % 1011,8 hPa 0,2 l/m 0 min 1 min 0 W/m 0,0 km/h (0 Bft) 100,00 %
06.09.2018 04:08 17,7 C 16,7 C 16,7 C 96 % 1011,7 hPa 0,6 l/m 0 min 2 min 0 W/m 0,0 km/h (0 Bft) 98,28 %
06.09.2018 04:10 17,7 C 16,7 C 16,1 C 96 % 1011,7 hPa 0,4 l/m 0 min 2 min 0 W/m 0,0 km/h (0 Bft) 97,14 %
06.09.2018 04:12 17,7 C 16,7 C 16,7 C 96 % 1011,7 hPa 0,8 l/m 0 min 2 min 0 W/m 0,0 km/h (0 Bft) 96,61 %
06.09.2018 04:14 17,7 C 16,7 C 16,1 C 96 % 1011,6 hPa 0,8 l/m 0 min 2 min 0 W/m 0,0 km/h (0 Bft) 100,00 %
06.09.2018 04:16 17,7 C 16,7 C 16,1 C 96 % 1011,7 hPa 0,4 l/m 0 min 2 min 0 W/m 0,0 km/h (0 Bft) 100,00 %
06.09.2018 04:18 17,7 C 16,7 C 16,1 C 97 % 1011,7 hPa 0,2 l/m 0 min 2 min 0 W/m 0,0 km/h (0 Bft) 97,87 %
06.09.2018 04:20 17,7 C 16,7 C 16,1 C 97 % 1011,6 hPa 0,2 l/m 0 min 2 min 0 W/m 0,0 km/h (0 Bft) 95,65 %
06.09.2018 04:22 17,7 C 16,7 C 16,1 C 97 % 1011,6 hPa 0,2 l/m 0 min 2 min 0 W/m 0,0 km/h (0 Bft) 97,87 %
06.09.2018 04:24 17,7 C 16,7 C 16,1 C 97 % 1011,6 hPa 0,4 l/m 0 min 2 min 0 W/m 0,0 km/h (0 Bft) 97,87 %
06.09.2018 04:26 17,7 C 16,7 C 16,1 C 97 % 1011,7 hPa 0,6 l/m 0 min 2 min 0 W/m 0,0 km/h (0 Bft) 97,87 %
06.09.2018 04:28 17,7 C 16,7 C 16,1 C 97 % 1011,6 hPa 0,4 l/m 0 min 2 min 0 W/m 0,0 km/h (0 Bft) 97,87 %
06.09.2018 04:30 17,7 C 16,7 C 16,1 C 97 % 1011,6 hPa 0,2 l/m 0 min 2 min 0 W/m 0,0 km/h (0 Bft) 95,74 %
06.09.2018 04:32 17,7 C 16,7 C 16,1 C 97 % 1011,6 hPa 0,6 l/m 0 min 2 min 0 W/m 0,0 km/h (0 Bft) 97,96 %
06.09.2018 04:34 17,7 C 16,7 C 16,1 C 97 % 1011,6 hPa 0,2 l/m 0 min 2 min 0 W/m 0,0 km/h (0 Bft) 97,87 %
06.09.2018 04:36 17,7 C 16,7 C 16,1 C 97 % 1011,6 hPa 0,2 l/m 0 min 2 min 0 W/m 0,0 km/h (0 Bft) 100,00 %
06.09.2018 04:38 17,7 C 16,7 C 16,1 C 97 % 1011,7 hPa 0,0 l/m 0 min 2 min 0 W/m 0,0 km/h (0 Bft) 100,00 %
06.09.2018 04:40 17,7 C 16,7 C 16,1 C 97 % 1011,7 hPa 0,2 l/m 0 min 2 min 0 W/m 0,0 km/h (0 Bft) 100,00 %
06.09.2018 04:42 17,7 C 16,7 C 16,1 C 97 % 1011,6 hPa 0,0 l/m 0 min 2 min 0 W/m 0,0 km/h (0 Bft) 97,83 %
06.09.2018 04:44 17,6 C 16,7 C 16,1 C 97 % 1011,5 hPa 0,2 l/m 0 min 2 min 0 W/m 0,0 km/h (0 Bft) 97,87 %
06.09.2018 04:46 17,6 C 16,7 C 16,1 C 97 % 1011,5 hPa 0,0 l/m 0 min 2 min 0 W/m 0,0 km/h (0 Bft) 97,87 %
06.09.2018 04:48 17,6 C 16,7 C 16,1 C 97 % 1011,5 hPa 0,2 l/m 0 min 2 min 0 W/m 0,0 km/h (0 Bft) 97,87 %
06.09.2018 04:50 17,6 C 16,7 C 16,7 C 97 % 1011,6 hPa 0,0 l/m 0 min 2 min 0 W/m 0,0 km/h (0 Bft) 97,87 %
06.09.2018 04:52 17,6 C 16,1 C 16,1 C 97 % 1011,5 hPa 0,2 l/m 0 min 2 min 0 W/m 0,0 km/h (0 Bft) 97,87 %
06.09.2018 04:54 17,6 C 16,1 C 16,1 C 97 % 1011,5 hPa 0,0 l/m 0 min 2 min 0 W/m 0,0 km/h (0 Bft) 97,83 %
06.09.2018 04:56 17,6 C 16,1 C 16,1 C 97 % 1011,4 hPa 0,2 l/m 0 min 2 min 0 W/m 0,0 km/h (0 Bft) 97,87 %
06.09.2018 04:58 17,6 C 16,1 C 16,1 C 97 % 1011,3 hPa 0,2 l/m 0 min 2 min 0 W/m 0,0 km/h (0 Bft) 97,87 %
06.09.2018 05:00 17,6 C 16,1 C 16,1 C 97 % 1011,3 hPa 0,2 l/m 0 min 2 min 0 W/m 0,0 km/h (0 Bft) 97,87 %
06.09.2018 05:02 17,6 C 16,1 C 16,1 C 97 % 1011,3 hPa 0,0 l/m 0 min 2 min 0 W/m 0,0 km/h (0 Bft) 97,87 %
06.09.2018 05:04 17,6 C 16,1 C 16,1 C 97 % 1011,2 hPa 0,2 l/m 0 min 2 min 0 W/m 0,0 km/h (0 Bft) 97,83 %
06.09.2018 05:06 17,6 C 16,1 C 16,1 C 97 % 1011,2 hPa 0,0 l/m 0 min 2 min 0 W/m 0,0 km/h (0 Bft) 97,87 %
06.09.2018 05:08 17,6 C 16,1 C 16,1 C 97 % 1011,1 hPa 0,0 l/m 0 min 2 min 0 W/m 0,0 km/h (0 Bft) 97,87 %
06.09.2018 05:10 17,5 C 16,1 C 16,1 C 97 % 1011,1 hPa 0,2 l/m 0 min 2 min 0 W/m 0,0 km/h (0 Bft) 93,62 %
06.09.2018 05:12 17,5 C 16,1 C 16,1 C 97 % 1011,0 hPa 0,0 l/m 0 min 2 min 0 W/m 0,0 km/h (0 Bft) 93,62 %
06.09.2018 05:14 17,5 C 16,1 C 16,1 C 97 % 1011,0 hPa 0,2 l/m 0 min 2 min 0 W/m 0,0 km/h (0 Bft) 95,74 %
06.09.2018 05:16 17,5 C 16,1 C 16,1 C 97 % 1011,0 hPa 0,2 l/m 0 min 2 min 0 W/m 0,0 km/h (0 Bft) 97,83 %
06.09.2018 05:18 17,5 C 16,1 C 16,1 C 97 % 1011,0 hPa 0,2 l/m 0 min 2 min 0 W/m 0,0 km/h (0 Bft) 93,62 %
06.09.2018 05:20 17,4 C 16,1 C 16,1 C 97 % 1011,0 hPa 0,0 l/m 0 min 2 min 0 W/m 2,3 km/h (1 Bft) 93,62 %
06.09.2018 05:22 17,4 C 16,1 C 16,1 C 97 % 1011,0 hPa 0,2 l/m 0 min 2 min 0 W/m 0,0 km/h (0 Bft) 95,74 %
06.09.2018 05:24 17,4 C 16,1 C 16,1 C 97 % 1011,1 hPa 0,0 l/m 0 min 2 min 0 W/m 4,5 km/h (1 Bft) 95,74 %
06.09.2018 05:26 17,4 C 16,1 C 16,1 C 97 % 1011,1 hPa 0,2 l/m 0 min 2 min 0 W/m 0,0 km/h (0 Bft) 95,74 %
06.09.2018 05:28 17,4 C 16,1 C 16,1 C 97 % 1011,1 hPa 0,0 l/m 0 min 2 min 0 W/m 0,0 km/h (0 Bft) 95,65 %
06.09.2018 05:30 17,4 C 16,1 C 16,1 C 97 % 1011,1 hPa 0,0 l/m 0 min 2 min 0 W/m 0,0 km/h (0 Bft) 95,74 %
06.09.2018 05:32 17,4 C 16,1 C 16,1 C 97 % 1011,1 hPa 0,0 l/m 0 min 2 min 0 W/m 0,0 km/h (0 Bft) 95,92 %
06.09.2018 05:34 17,4 C 16,1 C 16,1 C 97 % 1011,0 hPa 0,0 l/m 0 min 2 min 0 W/m 0,0 km/h (0 Bft) 95,65 %
06.09.2018 05:36 17,4 C 16,1 C 16,1 C 97 % 1010,9 hPa 0,0 l/m 0 min 2 min 0 W/m 2,3 km/h (1 Bft) 93,62 %
06.09.2018 05:38 17,4 C 16,1 C 16,1 C 97 % 1010,8 hPa 0,0 l/m 0 min 2 min 0 W/m 2,3 km/h (1 Bft) 95,74 %
06.09.2018 05:40 17,4 C 16,1 C 16,1 C 97 % 1010,8 hPa 0,2 l/m 0 min 2 min 0 W/m 6,8 km/h (2 Bft) 95,74 %
06.09.2018 05:42 17,4 C 16,1 C 16,1 C 97 % 1010,8 hPa 0,0 l/m 0 min 2 min 0 W/m 2,3 km/h (1 Bft) 95,74 %
06.09.2018 05:44 17,4 C 16,1 C 16,1 C 97 % 1010,9 hPa 0,0 l/m 0 min 2 min 0 W/m 2,3 km/h (1 Bft) 97,87 %
06.09.2018 05:46 17,4 C 16,1 C 16,1 C 97 % 1010,9 hPa 0,0 l/m 0 min 2 min 0 W/m 2,3 km/h (1 Bft) 97,83 %
06.09.2018 05:48 17,4 C 16,1 C 16,1 C 97 % 1010,9 hPa 0,0 l/m 0 min 0 min 0 W/m 2,3 km/h (1 Bft) 97,87 %
06.09.2018 05:50 17,4 C 16,1 C 16,1 C 97 % 1010,9 hPa 0,0 l/m 0 min 0 min 0 W/m 2,3 km/h (1 Bft) 95,74 %
06.09.2018 05:52 17,4 C 16,1 C 16,1 C 97 % 1010,9 hPa 0,0 l/m 0 min 0 min 0 W/m 0,0 km/h (0 Bft) 95,74 %
06.09.2018 05:54 17,4 C 16,1 C 16,1 C 97 % 1010,9 hPa 0,0 l/m 0 min 2 min 0 W/m 0,0 km/h (0 Bft) 97,87 %
06.09.2018 05:56 17,4 C 16,1 C 16,1 C 97 % 1010,9 hPa 0,0 l/m 0 min 0 min 0 W/m 2,3 km/h (1 Bft) 100,00 %
06.09.2018 05:58 17,4 C 16,1 C 16,1 C 97 % 1010,9 hPa 0,0 l/m 0 min 0 min 0 W/m 2,3 km/h (1 Bft) 97,87 %
06.09.2018 06:00 17,4 C 16,1 C 16,1 C 97 % 1010,9 hPa 0,0 l/m 0 min 0 min 0 W/m 0,0 km/h (0 Bft) 100,00 %
06.09.2018 06:02 17,4 C 16,1 C 16,1 C 97 % 1010,9 hPa 0,0 l/m 0 min 0 min 0 W/m 0,0 km/h (0 Bft) 100,00 %
06.09.2018 06:04 17,4 C 16,1 C 16,1 C 97 % 1010,9 hPa 0,0 l/m 0 min 0 min 0 W/m 4,5 km/h (1 Bft) 97,87 %
06.09.2018 06:07 17,4 C 16,1 C 16,7 C 97 % 1011,0 hPa 0,0 l/m 0 min 0 min 0 W/m 2,3 km/h (1 Bft) 97,87 %
06.09.2018 06:08 17,4 C 16,1 C 16,1 C 97 % 1011,0 hPa 0,0 l/m 0 min 0 min 0 W/m 2,3 km/h (1 Bft) 97,87 %
06.09.2018 06:10 17,4 C 16,7 C 16,1 C 97 % 1011,0 hPa 0,0 l/m 0 min 0 min 0 W/m 2,3 km/h (1 Bft) 97,87 %
06.09.2018 06:12 17,4 C 16,7 C 16,1 C 97 % 1011,1 hPa 0,0 l/m 0 min 0 min 0 W/m 2,3 km/h (1 Bft) 97,87 %
06.09.2018 06:14 17,4 C 16,7 C 16,1 C 97 % 1011,1 hPa 0,0 l/m 0 min 0 min 0 W/m 4,5 km/h (1 Bft) 99,15 %
06.09.2018 06:16 17,4 C 16,7 C 16,1 C 97 % 1011,2 hPa 0,0 l/m 0 min 0 min 0 W/m 0,0 km/h (0 Bft) 100,00 %
06.09.2018 06:18 17,4 C 16,7 C 16,1 C 97 % 1011,2 hPa 0,0 l/m 0 min 0 min 0 W/m 0,0 km/h (0 Bft) 100,00 %
06.09.2018 06:20 17,4 C 16,7 C 16,1 C 97 % 1011,3 hPa 0,0 l/m 0 min 0 min 0 W/m 0,0 km/h (0 Bft) 100,00 %
06.09.2018 06:22 17,4 C 16,7 C 16,1 C 98 % 1011,3 hPa 0,0 l/m 0 min 0 min 0 W/m 0,0 km/h (0 Bft) 97,83 %
06.09.2018 06:24 17,4 C 16,1 C 16,1 C 98 % 1011,3 hPa 0,0 l/m 0 min 0 min 0 W/m 0,0 km/h (0 Bft) 100,00 %
06.09.2018 06:26 17,4 C 16,1 C 16,1 C 98 % 1011,2 hPa 0,0 l/m 0 min 0 min 0 W/m 0,0 km/h (0 Bft) 100,00 %
06.09.2018 06:29 17,4 C 16,7 C 16,1 C 98 % 1011,2 hPa 0,0 l/m 0 min 3 min 0 W/m 0,0 km/h (0 Bft) 95,71 %
06.09.2018 06:30 17,4 C 16,7 C 16,1 C 98 % 1011,3 hPa 0,0 l/m 0 min 0 min 0 W/m 0,0 km/h (0 Bft) 100,00 %
06.09.2018 06:32 17,4 C 16,1 C 16,1 C 98 % 1011,2 hPa 0,0 l/m 0 min 2 min 0 W/m 0,0 km/h (0 Bft) 97,83 %
06.09.2018 06:34 17,4 C 16,7 C 16,1 C 98 % 1011,2 hPa 0,0 l/m 0 min 2 min 0 W/m 0,0 km/h (0 Bft) 100,00 %
06.09.2018 06:36 17,4 C 16,7 C 16,1 C 98 % 1011,4 hPa 0,0 l/m 0 min 2 min 0 W/m 0,0 km/h (0 Bft) 100,00 %
06.09.2018 06:38 17,4 C 16,7 C 16,1 C 98 % 1011,4 hPa 0,0 l/m 0 min 2 min 0 W/m 0,0 km/h (0 Bft) 97,87 %
06.09.2018 06:40 17,4 C 16,1 C 16,1 C 98 % 1011,5 hPa 0,0 l/m 0 min 2 min 0 W/m 0,0 km/h (0 Bft) 97,87 %
06.09.2018 06:42 17,4 C 16,7 C 16,1 C 98 % 1011,5 hPa 0,0 l/m 0 min 2 min 0 W/m 0,0 km/h (0 Bft) 97,87 %
06.09.2018 06:46 17,4 C 16,7 C 16,1 C 98 % 1011,4 hPa 0,0 l/m 0 min 4 min 0 W/m 2,3 km/h (1 Bft) 94,44 %
06.09.2018 06:48 17,4 C 16,7 C 16,1 C 98 % 1011,5 hPa 0,0 l/m 0 min 2 min 0 W/m 0,0 km/h (0 Bft) 100,00 %
06.09.2018 06:50 17,4 C 16,7 C 16,1 C 98 % 1011,5 hPa 0,0 l/m 0 min 2 min 0 W/m 0,0 km/h (0 Bft) 97,87 %
06.09.2018 06:52 17,4 C 16,7 C 16,1 C 98 % 1011,6 hPa 0,0 l/m 0 min 2 min 0 W/m 2,3 km/h (1 Bft) 96,30 %
06.09.2018 06:54 17,4 C 16,7 C 16,1 C 98 % 1011,5 hPa 0,0 l/m 0 min 2 min 0 W/m 2,3 km/h (1 Bft) 97,87 %
06.09.2018 06:56 17,4 C 16,7 C 16,1 C 98 % 1011,5 hPa 0,0 l/m 0 min 2 min 3 W/m 2,3 km/h (1 Bft) 100,00 %
06.09.2018 06:58 17,4 C 16,7 C 16,1 C 98 % 1011,5 hPa 0,0 l/m 0 min 0 min 5 W/m 2,3 km/h (1 Bft) 95,74 %
06.09.2018 07:00 17,4 C 16,1 C 16,1 C 98 % 1011,5 hPa 0,0 l/m 0 min 0 min 6 W/m 2,3 km/h (1 Bft) 95,74 %
06.09.2018 07:02 17,4 C 16,7 C 16,1 C 98 % 1011,4 hPa 0,0 l/m 0 min 0 min 7 W/m 0,0 km/h (0 Bft) 97,87 %
06.09.2018 07:04 17,4 C 16,1 C 16,1 C 98 % 1011,5 hPa 0,0 l/m 0 min 0 min 7 W/m 2,3 km/h (1 Bft) 97,87 %
06.09.2018 07:06 17,4 C 16,1 C 16,1 C 98 % 1011,4 hPa 0,0 l/m 0 min 0 min 6 W/m 0,0 km/h (0 Bft) 97,83 %
06.09.2018 07:08 17,4 C 16,7 C 16,1 C 98 % 1011,4 hPa 0,0 l/m 0 min 0 min 5 W/m 0,0 km/h (0 Bft) 97,87 %
06.09.2018 07:10 17,4 C 16,7 C 16,1 C 98 % 1011,4 hPa 0,0 l/m 0 min 0 min 6 W/m 0,0 km/h (0 Bft) 97,87 %
06.09.2018 07:12 17,4 C 16,1 C 16,1 C 98 % 1011,3 hPa 0,0 l/m 0 min 0 min 7 W/m 0,0 km/h (0 Bft) 97,87 %
06.09.2018 07:14 17,4 C 16,1 C 16,1 C 98 % 1011,3 hPa 0,0 l/m 0 min 0 min 7 W/m 0,0 km/h (0 Bft) 97,87 %
06.09.2018 07:16 17,4 C 16,1 C 16,1 C 98 % 1011,3 hPa 0,0 l/m 0 min 0 min 8 W/m 0,0 km/h (0 Bft) 97,87 %
06.09.2018 07:18 17,4 C 16,1 C 16,1 C 98 % 1011,2 hPa 0,0 l/m 0 min 0 min 9 W/m 0,0 km/h (0 Bft) 97,87 %
06.09.2018 07:20 17,4 C 16,1 C 16,1 C 98 % 1011,2 hPa 0,0 l/m 0 min 0 min 10 W/m 0,0 km/h (0 Bft) 97,83 %
06.09.2018 07:22 17,4 C 16,1 C 16,1 C 98 % 1011,2 hPa 0,0 l/m 0 min 0 min 11 W/m 0,0 km/h (0 Bft) 97,87 %
06.09.2018 07:24 17,4 C 16,1 C 16,1 C 98 % 1011,2 hPa 0,0 l/m 0 min 0 min 11 W/m 0,0 km/h (0 Bft) 97,87 %
06.09.2018 07:26 17,3 C 16,1 C 16,1 C 98 % 1011,2 hPa 0,0 l/m 0 min 0 min 11 W/m 0,0 km/h (0 Bft) 97,87 %
06.09.2018 07:28 17,3 C 16,1 C 16,1 C 98 % 1011,1 hPa 0,0 l/m 0 min 0 min 11 W/m 0,0 km/h (0 Bft) 97,87 %
06.09.2018 07:30 17,3 C 16,1 C 16,1 C 98 % 1011,2 hPa 0,0 l/m 0 min 0 min 11 W/m 0,0 km/h (0 Bft) 97,83 %
06.09.2018 07:32 17,3 C 16,1 C 16,1 C 98 % 1011,1 hPa 0,0 l/m 0 min 0 min 11 W/m 0,0 km/h (0 Bft) 100,00 %
06.09.2018 07:34 17,3 C 16,1 C 16,1 C 98 % 1011,1 hPa 0,0 l/m 0 min 0 min 11 W/m 0,0 km/h (0 Bft) 100,00 %
06.09.2018 07:36 17,3 C 16,1 C 16,1 C 98 % 1011,1 hPa 0,0 l/m 0 min 0 min 11 W/m 0,0 km/h (0 Bft) 100,00 %
06.09.2018 07:38 17,3 C 16,1 C 16,1 C 98 % 1010,9 hPa 0,0 l/m 0 min 0 min 12 W/m 0,0 km/h (0 Bft) 100,00 %
06.09.2018 07:40 17,3 C 16,1 C 16,1 C 98 % 1010,9 hPa 0,0 l/m 0 min 0 min 12 W/m 0,0 km/h (0 Bft) 97,87 %
06.09.2018 07:42 17,3 C 16,1 C 16,1 C 98 % 1011,0 hPa 0,0 l/m 0 min 0 min 13 W/m 2,3 km/h (1 Bft) 97,83 %
06.09.2018 07:44 17,3 C 16,1 C 16,1 C 98 % 1011,0 hPa 0,0 l/m 0 min 0 min 14 W/m 2,3 km/h (1 Bft) 100,00 %
06.09.2018 07:46 17,3 C 16,1 C 16,1 C 98 % 1011,1 hPa 0,0 l/m 0 min 0 min 14 W/m 0,0 km/h (0 Bft) 97,87 %
06.09.2018 07:48 17,3 C 16,1 C 16,1 C 98 % 1011,0 hPa 0,0 l/m 0 min 0 min 15 W/m 0,0 km/h (0 Bft) 100,00 %
06.09.2018 07:50 17,3 C 16,1 C 16,1 C 98 % 1011,0 hPa 0,0 l/m 0 min 0 min 16 W/m 0,0 km/h (0 Bft) 100,00 %
06.09.2018 07:52 17,3 C 16,1 C 16,1 C 98 % 1010,9 hPa 0,0 l/m 0 min 0 min 18 W/m 0,0 km/h (0 Bft) 100,00 %
06.09.2018 07:54 17,3 C 16,1 C 16,1 C 98 % 1011,0 hPa 0,0 l/m 0 min 0 min 19 W/m 0,0 km/h (0 Bft) 97,83 %
06.09.2018 07:56 17,3 C 16,1 C 16,1 C 98 % 1010,9 hPa 0,0 l/m 0 min 0 min 20 W/m 0,0 km/h (0 Bft) 97,87 %
06.09.2018 07:58 17,3 C 16,1 C 16,1 C 98 % 1010,9 hPa 0,0 l/m 0 min 0 min 21 W/m 0,0 km/h (0 Bft) 97,87 %
06.09.2018 08:00 17,2 C 16,7 C 16,1 C 98 % 1010,9 hPa 0,0 l/m 0 min 0 min 23 W/m 0,0 km/h (0 Bft) 97,87 %
06.09.2018 08:02 17,3 C 16,7 C 16,1 C 98 % 1010,9 hPa 0,0 l/m 0 min 0 min 24 W/m 0,0 km/h (0 Bft) 97,87 %
06.09.2018 08:04 17,2 C 16,7 C 16,1 C 98 % 1010,9 hPa 0,0 l/m 0 min 0 min 25 W/m 0,0 km/h (0 Bft) 97,87 %
06.09.2018 08:06 17,2 C 16,7 C 16,1 C 98 % 1010,9 hPa 0,0 l/m 0 min 0 min 25 W/m 2,3 km/h (1 Bft) 97,83 %
06.09.2018 08:08 17,3 C 16,7 C 16,7 C 98 % 1010,9 hPa 0,0 l/m 0 min 0 min 26 W/m 2,3 km/h (1 Bft) 95,74 %
06.09.2018 08:10 17,3 C 16,7 C 16,7 C 98 % 1010,9 hPa 0,0 l/m 0 min 0 min 27 W/m 2,3 km/h (1 Bft) 97,87 %
06.09.2018 08:12 17,3 C 16,7 C 16,7 C 98 % 1010,9 hPa 0,0 l/m 0 min 0 min 29 W/m 0,0 km/h (0 Bft) 97,87 %
06.09.2018 08:14 17,3 C 16,7 C 16,7 C 98 % 1010,8 hPa 0,0 l/m 0 min 2 min 31 W/m 0,0 km/h (0 Bft) 97,87 %
06.09.2018 08:16 17,3 C 16,7 C 16,1 C 98 % 1010,8 hPa 0,0 l/m 0 min 0 min 33 W/m 0,0 km/h (0 Bft) 97,87 %
06.09.2018 08:18 17,3 C 16,7 C 16,1 C 98 % 1010,7 hPa 0,0 l/m 0 min 0 min 33 W/m 2,3 km/h (1 Bft) 95,65 %
06.09.2018 08:20 17,3 C 16,7 C 16,1 C 98 % 1010,7 hPa 0,0 l/m 0 min 0 min 31 W/m 2,3 km/h (1 Bft) 95,74 %
06.09.2018 08:22 17,3 C 16,7 C 16,1 C 98 % 1010,6 hPa 0,0 l/m 0 min 0 min 30 W/m 0,0 km/h (0 Bft) 95,83 %
06.09.2018 08:24 17,3 C 16,7 C 16,1 C 98 % 1010,6 hPa 0,0 l/m 0 min 0 min 30 W/m 2,3 km/h (1 Bft) 95,74 %
06.09.2018 08:26 17,3 C 16,7 C 16,1 C 98 % 1010,5 hPa 0,0 l/m 0 min 0 min 30 W/m 2,3 km/h (1 Bft) 93,62 %
06.09.2018 08:28 17,3 C 16,7 C 16,1 C 98 % 1010,4 hPa 0,0 l/m 0 min 0 min 32 W/m 2,3 km/h (1 Bft) 91,30 %
06.09.2018 08:30 17,3 C 16,7 C 16,1 C 98 % 1010,4 hPa 0,0 l/m 0 min 0 min 32 W/m 4,5 km/h (1 Bft) 93,62 %
06.09.2018 08:32 17,3 C 16,7 C 16,1 C 98 % 1010,5 hPa 0,0 l/m 0 min 0 min 31 W/m 2,3 km/h (1 Bft) 95,74 %
06.09.2018 08:34 17,3 C 16,7 C 16,1 C 98 % 1010,4 hPa 0,0 l/m 0 min 0 min 30 W/m 0,0 km/h (0 Bft) 95,74 %
06.09.2018 08:36 17,3 C 16,7 C 16,1 C 98 % 1010,4 hPa 0,0 l/m 0 min 0 min 30 W/m 0,0 km/h (0 Bft) 95,74 %
06.09.2018 08:38 17,4 C 16,7 C 16,1 C 98 % 1010,6 hPa 0,0 l/m 0 min 0 min 31 W/m 4,5 km/h (1 Bft) 97,87 %
06.09.2018 08:40 17,4 C 16,7 C 16,1 C 98 % 1010,6 hPa 0,0 l/m 0 min 0 min 32 W/m 2,3 km/h (1 Bft) 97,83 %
06.09.2018 08:42 17,4 C 16,7 C 16,1 C 98 % 1010,6 hPa 0,0 l/m 0 min 0 min 33 W/m 0,0 km/h (0 Bft) 97,87 %
06.09.2018 08:44 17,4 C 16,7 C 16,1 C 98 % 1010,7 hPa 0,0 l/m 0 min 0 min 33 W/m 2,3 km/h (1 Bft) 95,74 %
06.09.2018 08:46 17,4 C 16,7 C 16,1 C 98 % 1010,7 hPa 0,0 l/m 0 min 0 min 35 W/m 0,0 km/h (0 Bft) 95,74 %
06.09.2018 08:48 17,4 C 16,7 C 16,1 C 98 % 1010,7 hPa 0,0 l/m 0 min 0 min 37 W/m 2,3 km/h (1 Bft) 95,74 %
06.09.2018 08:50 17,4 C 16,7 C 16,1 C 98 % 1010,7 hPa 0,0 l/m 0 min 0 min 38 W/m 2,3 km/h (1 Bft) 97,87 %
06.09.2018 08:52 17,4 C 16,7 C 16,1 C 98 % 1010,7 hPa 0,0 l/m 0 min 2 min 39 W/m 0,0 km/h (0 Bft) 97,87 %
06.09.2018 08:54 17,4 C 16,7 C 16,7 C 98 % 1010,7 hPa 0,2 l/m 0 min 2 min 39 W/m 0,0 km/h (0 Bft) 94,44 %
06.09.2018 08:56 17,4 C 16,7 C 16,7 C 98 % 1010,7 hPa 0,0 l/m 0 min 2 min 41 W/m 0,0 km/h (0 Bft) 97,83 %
06.09.2018 08:58 17,4 C 16,7 C 16,1 C 98 % 1010,7 hPa 0,0 l/m 0 min 2 min 42 W/m 4,5 km/h (1 Bft) 97,87 %
06.09.2018 09:00 17,4 C 16,7 C 16,1 C 98 % 1010,7 hPa 0,0 l/m 0 min 2 min 44 W/m 0,0 km/h (0 Bft) 97,87 %
06.09.2018 09:02 17,4 C 16,7 C 16,1 C 98 % 1010,7 hPa 0,0 l/m 0 min 2 min 48 W/m 0,0 km/h (0 Bft) 95,92 %
06.09.2018 09:04 17,4 C 16,7 C 16,1 C 98 % 1010,7 hPa 0,0 l/m 0 min 2 min 51 W/m 0,0 km/h (0 Bft) 97,87 %
06.09.2018 09:06 17,5 C 16,7 C 16,1 C 98 % 1010,7 hPa 0,0 l/m 0 min 2 min 47 W/m 0,0 km/h (0 Bft) 97,83 %
06.09.2018 09:08 17,5 C 16,7 C 16,1 C 98 % 1010,7 hPa 0,2 l/m 0 min 2 min 45 W/m 0,0 km/h (0 Bft) 97,87 %
06.09.2018 09:10 17,5 C 16,7 C 16,7 C 98 % 1010,7 hPa 0,0 l/m 0 min 2 min 42 W/m 0,0 km/h (0 Bft) 97,87 %
06.09.2018 09:12 17,5 C 16,7 C 16,7 C 98 % 1010,7 hPa 0,0 l/m 0 min 2 min 41 W/m 0,0 km/h (0 Bft) 97,87 %
06.09.2018 09:14 17,5 C 16,7 C 16,7 C 98 % 1010,7 hPa 0,0 l/m 0 min 2 min 42 W/m 0,0 km/h (0 Bft) 97,87 %
06.09.2018 09:16 17,5 C 16,7 C 16,7 C 98 % 1010,7 hPa 0,0 l/m 0 min 2 min 43 W/m 0,0 km/h (0 Bft) 100,00 %
06.09.2018 09:18 17,5 C 16,7 C 16,7 C 98 % 1010,7 hPa 0,0 l/m 0 min 2 min 48 W/m 0,0 km/h (0 Bft) 95,74 %
06.09.2018 09:20 17,5 C 16,7 C 16,7 C 98 % 1010,6 hPa 0,0 l/m 0 min 2 min 53 W/m 0,0 km/h (0 Bft) 100,00 %
06.09.2018 09:22 17,6 C 16,7 C 16,7 C 98 % 1010,7 hPa 0,0 l/m 0 min 2 min 54 W/m 0,0 km/h (0 Bft) 100,00 %
06.09.2018 09:24 17,6 C 16,7 C 16,7 C 98 % 1010,7 hPa 0,0 l/m 0 min 0 min 54 W/m 0,0 km/h (0 Bft) 95,74 %
06.09.2018 09:26 17,6 C 16,7 C 16,7 C 98 % 1010,7 hPa 0,0 l/m 0 min 2 min 53 W/m 0,0 km/h (0 Bft) 97,87 %
06.09.2018 09:28 17,6 C 16,7 C 16,7 C 98 % 1010,7 hPa 0,0 l/m 0 min 2 min 55 W/m 0,0 km/h (0 Bft) 100,00 %
06.09.2018 09:30 17,6 C 16,7 C 16,7 C 98 % 1010,6 hPa 0,0 l/m 0 min 2 min 60 W/m 0,0 km/h (0 Bft) 100,00 %
06.09.2018 09:32 17,6 C 16,7 C 16,7 C 98 % 1010,6 hPa 0,0 l/m 0 min 0 min 65 W/m 0,0 km/h (0 Bft) 97,87 %
06.09.2018 09:34 17,6 C 17,2 C 16,7 C 99 % 1010,6 hPa 0,0 l/m 0 min 0 min 69 W/m 0,0 km/h (0 Bft) 97,87 %
06.09.2018 09:36 17,6 C 16,7 C 16,7 C 99 % 1010,7 hPa 0,0 l/m 0 min 0 min 70 W/m 0,0 km/h (0 Bft) 97,87 %
06.09.2018 09:38 17,6 C 16,7 C 16,7 C 98 % 1010,8 hPa 0,0 l/m 0 min 0 min 66 W/m 0,0 km/h (0 Bft) 97,87 %
06.09.2018 09:40 17,7 C 16,7 C 16,7 C 98 % 1010,8 hPa 0,0 l/m 0 min 0 min 55 W/m 0,0 km/h (0 Bft) 95,65 %
06.09.2018 09:42 17,7 C 16,7 C 16,7 C 98 % 1010,8 hPa 0,0 l/m 0 min 0 min 49 W/m 0,0 km/h (0 Bft) 97,87 %
06.09.2018 09:44 17,7 C 16,7 C 16,7 C 98 % 1010,8 hPa 0,0 l/m 0 min 0 min 43 W/m 0,0 km/h (0 Bft) 97,87 %
06.09.2018 09:46 17,7 C 16,7 C 16,7 C 98 % 1010,8 hPa 0,0 l/m 0 min 0 min 40 W/m 0,0 km/h (0 Bft) 97,87 %
06.09.2018 09:48 17,7 C 16,7 C 16,7 C 98 % 1010,9 hPa 0,0 l/m 0 min 0 min 43 W/m 0,0 km/h (0 Bft) 97,87 %
06.09.2018 09:50 17,7 C 16,7 C 16,7 C 98 % 1010,8 hPa 0,0 l/m 0 min 0 min 48 W/m 0,0 km/h (0 Bft) 95,74 %
06.09.2018 09:52 17,7 C 17,2 C 16,7 C 98 % 1010,8 hPa 0,0 l/m 0 min 0 min 50 W/m 0,0 km/h (0 Bft) 97,83 %
06.09.2018 09:54 17,7 C 17,2 C 16,7 C 99 % 1010,9 hPa 0,0 l/m 0 min 0 min 51 W/m 0,0 km/h (0 Bft) 97,87 %
06.09.2018 09:56 17,7 C 16,7 C 16,7 C 99 % 1010,8 hPa 0,0 l/m 0 min 0 min 52 W/m 0,0 km/h (0 Bft) 97,87 %
06.09.2018 09:58 17,8 C 16,7 C 16,7 C 99 % 1010,9 hPa 0,0 l/m 0 min 0 min 54 W/m 0,0 km/h (0 Bft) 97,87 %
06.09.2018 10:00 17,8 C 16,7 C 16,7 C 99 % 1010,9 hPa 0,0 l/m 0 min 0 min 58 W/m 0,0 km/h (0 Bft) 97,87 %
06.09.2018 10:02 17,8 C 16,7 C 16,7 C 99 % 1010,8 hPa 0,0 l/m 0 min 0 min 56 W/m 0,0 km/h (0 Bft) 97,87 %
06.09.2018 10:04 17,8 C 16,7 C 16,7 C 99 % 1010,9 hPa 0,0 l/m 0 min 0 min 55 W/m 0,0 km/h (0 Bft) 97,83 %
06.09.2018 10:06 17,8 C 17,2 C 16,7 C 99 % 1010,8 hPa 0,0 l/m 0 min 0 min 52 W/m 0,0 km/h (0 Bft) 97,87 %
06.09.2018 10:08 17,8 C 17,2 C 16,7 C 99 % 1010,9 hPa 0,0 l/m 0 min 0 min 46 W/m 0,0 km/h (0 Bft) 97,87 %
06.09.2018 10:10 17,8 C 17,2 C 16,7 C 99 % 1010,9 hPa 0,0 l/m 0 min 0 min 40 W/m 0,0 km/h (0 Bft) 97,87 %
06.09.2018 10:12 17,8 C 16,7 C 16,7 C 99 % 1010,9 hPa 0,0 l/m 0 min 0 min 33 W/m 0,0 km/h (0 Bft) 97,87 %
06.09.2018 10:14 17,8 C 16,7 C 16,7 C 99 % 1011,0 hPa 0,0 l/m 0 min 0 min 27 W/m 0,0 km/h (0 Bft) 97,87 %
06.09.2018 10:16 17,8 C 16,7 C 16,7 C 99 % 1011,0 hPa 0,0 l/m 0 min 0 min 25 W/m 2,3 km/h (1 Bft) 97,83 %
06.09.2018 10:18 17,8 C 16,7 C 16,7 C 99 % 1011,0 hPa 0,0 l/m 0 min 0 min 25 W/m 0,0 km/h (0 Bft) 97,87 %
06.09.2018 10:20 17,8 C 16,7 C 16,7 C 99 % 1011,0 hPa 0,0 l/m 0 min 2 min 26 W/m 0,0 km/h (0 Bft) 97,87 %
06.09.2018 10:22 17,8 C 16,7 C 16,7 C 99 % 1011,0 hPa 0,0 l/m 0 min 0 min 28 W/m 0,0 km/h (0 Bft) 95,74 %
06.09.2018 10:24 17,8 C 16,7 C 16,7 C 99 % 1011,0 hPa 0,0 l/m 0 min 0 min 31 W/m 0,0 km/h (0 Bft) 97,87 %
06.09.2018 10:26 17,8 C 16,7 C 16,7 C 99 % 1010,9 hPa 0,0 l/m 0 min 2 min 33 W/m 0,0 km/h (0 Bft) 97,83 %
06.09.2018 10:28 17,8 C 16,7 C 16,7 C 99 % 1011,0 hPa 0,0 l/m 0 min 2 min 35 W/m 0,0 km/h (0 Bft) 100,00 %
06.09.2018 10:30 17,8 C 16,7 C 16,7 C 99 % 1011,0 hPa 0,0 l/m 0 min 2 min 35 W/m 0,0 km/h (0 Bft) 100,00 %
06.09.2018 10:32 17,8 C 16,7 C 16,7 C 99 % 1010,9 hPa 0,0 l/m 0 min 2 min 32 W/m 0,0 km/h (0 Bft) 97,87 %
06.09.2018 10:34 17,8 C 16,7 C 16,7 C 99 % 1010,9 hPa 0,0 l/m 0 min 2 min 33 W/m 0,0 km/h (0 Bft) 97,96 %
06.09.2018 10:36 17,8 C 16,7 C 16,7 C 99 % 1010,9 hPa 0,0 l/m 0 min 2 min 36 W/m 2,3 km/h (1 Bft) 97,87 %
06.09.2018 10:38 17,8 C 16,7 C 16,7 C 99 % 1010,9 hPa 0,0 l/m 0 min 2 min 40 W/m 0,0 km/h (0 Bft) 97,83 %
06.09.2018 10:40 17,8 C 16,7 C 16,7 C 99 % 1010,9 hPa 0,0 l/m 0 min 2 min 42 W/m 2,3 km/h (1 Bft) 97,87 %
06.09.2018 10:42 17,8 C 16,7 C 16,7 C 99 % 1010,9 hPa 0,0 l/m 0 min 2 min 47 W/m 0,0 km/h (0 Bft) 100,00 %
06.09.2018 10:44 17,8 C 16,7 C 16,7 C 99 % 1010,8 hPa 0,0 l/m 0 min 2 min 52 W/m 0,0 km/h (0 Bft) 97,87 %
06.09.2018 10:46 17,8 C 17,2 C 16,7 C 99 % 1010,8 hPa 0,0 l/m 0 min 2 min 56 W/m 0,0 km/h (0 Bft) 95,74 %
06.09.2018 10:48 17,8 C 17,2 C 16,7 C 99 % 1010,8 hPa 0,0 l/m 0 min 2 min 58 W/m 0,0 km/h (0 Bft) 97,92 %
06.09.2018 10:50 17,8 C 17,2 C 16,7 C 99 % 1010,8 hPa 0,0 l/m 0 min 0 min 61 W/m 0,0 km/h (0 Bft) 97,83 %
06.09.2018 10:52 17,8 C 17,2 C 16,7 C 99 % 1010,8 hPa 0,0 l/m 0 min 0 min 65 W/m 0,0 km/h (0 Bft) 97,87 %
06.09.2018 10:54 17,8 C 17,2 C 16,7 C 99 % 1010,8 hPa 0,0 l/m 0 min 0 min 69 W/m 0,0 km/h (0 Bft) 97,87 %
06.09.2018 10:56 17,8 C 17,2 C 16,7 C 99 % 1010,7 hPa 0,0 l/m 0 min 2 min 71 W/m 0,0 km/h (0 Bft) 97,87 %
06.09.2018 10:58 17,8 C 17,2 C 16,7 C 99 % 1010,8 hPa 0,0 l/m 0 min 0 min 74 W/m 0,0 km/h (0 Bft) 97,87 %
06.09.2018 11:00 17,8 C 17,2 C 16,7 C 99 % 1010,8 hPa 0,0 l/m 0 min 0 min 72 W/m 0,0 km/h (0 Bft) 97,87 %
06.09.2018 11:02 17,9 C 17,2 C 16,7 C 99 % 1010,8 hPa 0,0 l/m 0 min 2 min 65 W/m 0,0 km/h (0 Bft) 97,83 %
06.09.2018 11:04 17,9 C 17,2 C 16,7 C 99 % 1010,8 hPa 0,0 l/m 0 min 0 min 66 W/m 0,0 km/h (0 Bft) 95,74 %
06.09.2018 11:06 17,9 C 17,2 C 16,7 C 99 % 1010,9 hPa 0,0 l/m 0 min 0 min 76 W/m 0,0 km/h (0 Bft) 97,87 %
06.09.2018 11:08 17,9 C 17,2 C 16,7 C 99 % 1010,8 hPa 0,0 l/m 0 min 0 min 83 W/m 0,0 km/h (0 Bft) 97,87 %
06.09.2018 11:10 17,9 C 17,2 C 16,7 C 99 % 1010,8 hPa 0,0 l/m 0 min 0 min 87 W/m 2,3 km/h (1 Bft) 97,87 %
06.09.2018 11:12 17,9 C 17,2 C 16,7 C 99 % 1010,7 hPa 0,0 l/m 0 min 0 min 105 W/m 0,0 km/h (0 Bft) 97,87 %
06.09.2018 11:14 17,9 C 17,2 C 16,7 C 99 % 1010,7 hPa 0,0 l/m 0 min 0 min 114 W/m 2,3 km/h (1 Bft) 97,83 %
06.09.2018 11:16 17,9 C 17,2 C 16,7 C 99 % 1010,8 hPa 0,0 l/m 0 min 0 min 113 W/m 0,0 km/h (0 Bft) 95,74 %
06.09.2018 11:18 17,9 C 17,2 C 16,7 C 99 % 1010,7 hPa 0,0 l/m 0 min 0 min 114 W/m 2,3 km/h (1 Bft) 97,87 %
06.09.2018 11:20 17,9 C 17,2 C 16,7 C 99 % 1010,8 hPa 0,0 l/m 0 min 0 min 122 W/m 2,3 km/h (1 Bft) 100,00 %
06.09.2018 11:22 17,9 C 17,2 C 16,7 C 99 % 1010,8 hPa 0,0 l/m 0 min 0 min 132 W/m 2,3 km/h (1 Bft) 100,00 %
06.09.2018 11:24 17,9 C 17,2 C 16,7 C 99 % 1010,8 hPa 0,0 l/m 0 min 0 min 140 W/m 2,3 km/h (1 Bft) 97,83 %
06.09.2018 11:26 17,9 C 17,2 C 16,7 C 99 % 1010,8 hPa 0,0 l/m 0 min 0 min 146 W/m 2,3 km/h (1 Bft) 97,87 %
06.09.2018 11:28 18,0 C 17,2 C 16,7 C 99 % 1010,8 hPa 0,0 l/m 0 min 0 min 148 W/m 0,0 km/h (0 Bft) 100,00 %
06.09.2018 11:30 18,0 C 17,2 C 16,7 C 99 % 1010,8 hPa 0,0 l/m 0 min 0 min 152 W/m 2,3 km/h (1 Bft) 100,00 %
06.09.2018 11:32 18,0 C 17,8 C 16,7 C 99 % 1010,9 hPa 0,0 l/m 0 min 0 min 159 W/m 2,3 km/h (1 Bft) 100,00 %
06.09.2018 11:34 18,1 C 17,8 C 16,7 C 99 % 1010,8 hPa 0,0 l/m 0 min 0 min 167 W/m 2,3 km/h (1 Bft) 100,00 %
06.09.2018 11:36 18,1 C 17,8 C 16,7 C 99 % 1010,8 hPa 0,0 l/m 0 min 0 min 167 W/m 2,3 km/h (1 Bft) 100,00 %
06.09.2018 11:38 18,1 C 17,2 C 16,7 C 99 % 1010,8 hPa 0,0 l/m 0 min 0 min 161 W/m 2,3 km/h (1 Bft) 97,87 %
06.09.2018 11:40 18,1 C 17,8 C 16,7 C 99 % 1010,8 hPa 0,0 l/m 0 min 0 min 153 W/m 2,3 km/h (1 Bft) 97,87 %
06.09.2018 11:42 18,1 C 17,8 C 16,7 C 99 % 1010,9 hPa 0,0 l/m 0 min 0 min 149 W/m 0,0 km/h (0 Bft) 97,87 %
06.09.2018 11:44 18,1 C 17,8 C 17,2 C 99 % 1010,8 hPa 0,0 l/m 0 min 0 min 147 W/m 0,0 km/h (0 Bft) 97,87 %
06.09.2018 11:46 18,2 C 17,8 C 17,2 C 99 % 1010,8 hPa 0,0 l/m 0 min 0 min 145 W/m 2,3 km/h (1 Bft) 95,74 %
06.09.2018 11:48 18,2 C 17,8 C 17,2 C 99 % 1010,8 hPa 0,0 l/m 0 min 0 min 155 W/m 0,0 km/h (0 Bft) 97,87 %
06.09.2018 11:50 18,2 C 17,8 C 17,2 C 99 % 1010,8 hPa 0,0 l/m 0 min 0 min 154 W/m 0,0 km/h (0 Bft) 97,87 %
06.09.2018 11:52 18,2 C 17,8 C 17,2 C 99 % 1010,8 hPa 0,0 l/m 0 min 0 min 147 W/m 2,3 km/h (1 Bft) 97,87 %
06.09.2018 11:54 18,2 C 17,8 C 17,2 C 99 % 1010,8 hPa 0,0 l/m 0 min 0 min 142 W/m 0,0 km/h (0 Bft) 97,14 %
06.09.2018 11:56 18,2 C 17,8 C 17,2 C 99 % 1010,8 hPa 0,0 l/m 0 min 0 min 143 W/m 0,0 km/h (0 Bft) 97,87 %
06.09.2018 11:58 18,3 C 17,8 C 17,2 C 99 % 1010,7 hPa 0,0 l/m 0 min 0 min 147 W/m 0,0 km/h (0 Bft) 97,87 %
06.09.2018 12:00 18,3 C 17,8 C 17,2 C 99 % 1010,8 hPa 0,0 l/m 0 min 0 min 143 W/m 4,5 km/h (1 Bft) 95,74 %
06.09.2018 12:02 18,3 C 17,8 C 17,2 C 99 % 1010,7 hPa 0,0 l/m 0 min 0 min 130 W/m 0,0 km/h (0 Bft) 97,83 %
06.09.2018 12:04 18,3 C 17,8 C 17,2 C 99 % 1010,7 hPa 0,0 l/m 0 min 0 min 123 W/m 0,0 km/h (0 Bft) 97,87 %
06.09.2018 12:06 18,3 C 17,8 C 17,2 C 99 % 1010,7 hPa 0,0 l/m 0 min 0 min 108 W/m 0,0 km/h (0 Bft) 97,87 %
06.09.2018 12:08 18,4 C 17,8 C 17,2 C 99 % 1010,8 hPa 0,0 l/m 0 min 0 min 94 W/m 0,0 km/h (0 Bft) 97,87 %
06.09.2018 12:10 18,4 C 17,8 C 17,2 C 99 % 1010,8 hPa 0,0 l/m 0 min 0 min 78 W/m 0,0 km/h (0 Bft) 97,87 %
06.09.2018 12:12 18,4 C 17,8 C 17,2 C 99 % 1010,7 hPa 0,0 l/m 0 min 0 min 69 W/m 2,3 km/h (1 Bft) 97,87 %
06.09.2018 12:14 18,4 C 17,2 C 17,2 C 99 % 1010,7 hPa 0,0 l/m 0 min 0 min 69 W/m 0,0 km/h (0 Bft) 95,65 %
06.09.2018 12:16 18,3 C 17,8 C 17,2 C 99 % 1010,7 hPa 0,0 l/m 0 min 0 min 77 W/m 2,3 km/h (1 Bft) 95,74 %
06.09.2018 12:18 18,3 C 17,8 C 17,2 C 99 % 1010,7 hPa 0,0 l/m 0 min 0 min 85 W/m 0,0 km/h (0 Bft) 97,87 %
06.09.2018 12:20 18,3 C 17,8 C 17,2 C 99 % 1010,7 hPa 0,0 l/m 0 min 2 min 89 W/m 0,0 km/h (0 Bft) 96,61 %
06.09.2018 12:22 18,3 C 17,8 C 17,2 C 99 % 1010,7 hPa 0,0 l/m 0 min 2 min 89 W/m 0,0 km/h (0 Bft) 97,56 %
06.09.2018 12:24 18,3 C 17,8 C 17,2 C 99 % 1010,7 hPa 0,0 l/m 0 min 0 min 88 W/m 0,0 km/h (0 Bft) 93,62 %
06.09.2018 12:26 18,4 C 17,8 C 17,2 C 99 % 1010,7 hPa 0,0 l/m 0 min 0 min 87 W/m 2,3 km/h (1 Bft) 95,65 %
06.09.2018 12:28 18,4 C 17,8 C 17,2 C 99 % 1010,7 hPa 0,0 l/m 0 min 0 min 94 W/m 0,0 km/h (0 Bft) 95,74 %
06.09.2018 12:30 18,4 C 17,8 C 17,2 C 99 % 1010,6 hPa 0,0 l/m 0 min 0 min 95 W/m 2,3 km/h (1 Bft) 95,74 %
06.09.2018 12:32 18,4 C 17,8 C 17,2 C 99 % 1010,6 hPa 0,0 l/m 0 min 0 min 96 W/m 2,3 km/h (1 Bft) 97,87 %
06.09.2018 12:34 18,4 C 17,8 C 17,2 C 99 % 1010,5 hPa 0,0 l/m 0 min 0 min 101 W/m 2,3 km/h (1 Bft) 97,73 %
06.09.2018 12:36 18,4 C 17,8 C 17,2 C 99 % 1010,4 hPa 0,0 l/m 0 min 0 min 108 W/m 0,0 km/h (0 Bft) 100,00 %
06.09.2018 12:38 18,4 C 17,8 C 17,2 C 99 % 1010,5 hPa 0,0 l/m 0 min 0 min 114 W/m 0,0 km/h (0 Bft) 95,74 %
06.09.2018 12:40 18,4 C 17,8 C 17,2 C 99 % 1010,5 hPa 0,0 l/m 0 min 0 min 126 W/m 2,3 km/h (1 Bft) 95,74 %
06.09.2018 12:42 18,4 C 17,8 C 17,2 C 99 % 1010,5 hPa 0,0 l/m 0 min 0 min 140 W/m 0,0 km/h (0 Bft) 97,87 %
06.09.2018 12:44 18,4 C 17,8 C 17,2 C 99 % 1010,5 hPa 0,0 l/m 0 min 0 min 156 W/m 0,0 km/h (0 Bft) 97,87 %
06.09.2018 12:46 18,4 C 17,8 C 17,2 C 99 % 1010,5 hPa 0,0 l/m 0 min 0 min 172 W/m 0,0 km/h (0 Bft) 95,74 %
06.09.2018 12:48 18,4 C 18,3 C 17,2 C 99 % 1010,5 hPa 0,0 l/m 0 min 0 min 189 W/m 2,3 km/h (1 Bft) 95,65 %
06.09.2018 12:50 18,5 C 18,3 C 17,2 C 99 % 1010,5 hPa 0,0 l/m 0 min 0 min 199 W/m 0,0 km/h (0 Bft) 97,87 %
06.09.2018 12:52 18,5 C 18,3 C 17,2 C 99 % 1010,4 hPa 0,0 l/m 0 min 0 min 206 W/m 0,0 km/h (0 Bft) 93,62 %
06.09.2018 12:54 18,6 C 18,9 C 17,2 C 99 % 1010,4 hPa 0,0 l/m 0 min 0 min 227 W/m 2,3 km/h (1 Bft) 96,43 %
06.09.2018 12:56 18,6 C 18,9 C 17,8 C 99 % 1010,3 hPa 0,0 l/m 0 min 0 min 238 W/m 2,3 km/h (1 Bft) 97,87 %
06.09.2018 12:58 18,6 C 18,9 C 17,8 C 99 % 1010,3 hPa 0,0 l/m 0 min 0 min 249 W/m 0,0 km/h (0 Bft) 95,74 %
06.09.2018 13:00 18,7 C 18,9 C 17,2 C 99 % 1010,4 hPa 0,0 l/m 0 min 0 min 253 W/m 0,0 km/h (0 Bft) 97,83 %
06.09.2018 13:02 18,7 C 18,9 C 17,8 C 99 % 1010,3 hPa 0,0 l/m 0 min 0 min 258 W/m 2,3 km/h (1 Bft) 95,92 %
06.09.2018 13:04 18,7 C 18,9 C 17,8 C 99 % 1010,4 hPa 0,0 l/m 0 min 0 min 266 W/m 2,3 km/h (1 Bft) 100,00 %
06.09.2018 13:06 18,7 C 18,9 C 17,8 C 99 % 1010,4 hPa 0,0 l/m 0 min 0 min 272 W/m 0,0 km/h (0 Bft) 97,92 %
06.09.2018 13:08 18,8 C 19,4 C 17,8 C 99 % 1010,3 hPa 0,0 l/m 0 min 0 min 275 W/m 0,0 km/h (0 Bft) 97,87 %
06.09.2018 13:10 18,8 C 20,0 C 17,8 C 99 % 1010,3 hPa 0,0 l/m 0 min 0 min 265 W/m 0,0 km/h (0 Bft) 95,65 %
06.09.2018 13:12 18,8 C 20,0 C 17,8 C 99 % 1010,3 hPa 0,0 l/m 0 min 0 min 265 W/m 0,0 km/h (0 Bft) 95,74 %
06.09.2018 13:14 18,8 C 20,0 C 17,8 C 99 % 1010,3 hPa 0,0 l/m 0 min 0 min 254 W/m 0,0 km/h (0 Bft) 95,74 %
06.09.2018 13:16 18,9 C 20,0 C 17,8 C 99 % 1010,3 hPa 0,0 l/m 0 min 0 min 223 W/m 0,0 km/h (0 Bft) 93,62 %
06.09.2018 13:18 18,9 C 20,0 C 17,8 C 99 % 1010,4 hPa 0,0 l/m 0 min 0 min 216 W/m 4,5 km/h (1 Bft) 95,74 %
06.09.2018 13:20 18,9 C 20,0 C 17,8 C 99 % 1010,3 hPa 0,0 l/m 0 min 0 min 217 W/m 4,5 km/h (1 Bft) 93,62 %
06.09.2018 13:22 18,9 C 20,0 C 17,8 C 99 % 1010,3 hPa 0,0 l/m 0 min 0 min 221 W/m 0,0 km/h (0 Bft) 97,14 %
06.09.2018 13:24 18,9 C 20,0 C 17,8 C 99 % 1010,3 hPa 0,0 l/m 0 min 0 min 216 W/m 4,5 km/h (1 Bft) 95,74 %
06.09.2018 13:26 18,9 C 20,0 C 17,8 C 99 % 1010,3 hPa 0,0 l/m 0 min 0 min 206 W/m 2,3 km/h (1 Bft) 93,62 %
06.09.2018 13:28 18,9 C 19,4 C 17,2 C 99 % 1010,3 hPa 0,0 l/m 0 min 0 min 225 W/m 2,3 km/h (1 Bft) 95,74 %
06.09.2018 13:30 18,9 C 20,0 C 17,8 C 99 % 1010,3 hPa 0,0 l/m 0 min 0 min 249 W/m 6,8 km/h (2 Bft) 95,74 %
06.09.2018 13:32 18,9 C 20,0 C 17,8 C 99 % 1010,4 hPa 0,0 l/m 0 min 0 min 269 W/m 4,5 km/h (1 Bft) 97,87 %
06.09.2018 13:34 18,9 C 20,0 C 17,8 C 99 % 1010,3 hPa 0,0 l/m 0 min 0 min 271 W/m 4,5 km/h (1 Bft) 97,87 %
06.09.2018 13:36 18,9 C 20,0 C 17,8 C 99 % 1010,3 hPa 0,0 l/m 0 min 0 min 294 W/m 4,5 km/h (1 Bft) 97,83 %
06.09.2018 13:38 18,9 C 20,6 C 17,8 C 99 % 1010,3 hPa 0,0 l/m 0 min 0 min 334 W/m 2,3 km/h (1 Bft) 97,87 %
06.09.2018 13:40 19,0 C 21,1 C 17,8 C 99 % 1010,3 hPa 0,0 l/m 0 min 0 min 343 W/m 2,3 km/h (1 Bft) 95,74 %
06.09.2018 13:42 19,1 C 21,1 C 17,8 C 99 % 1010,3 hPa 0,0 l/m 0 min 0 min 335 W/m 2,3 km/h (1 Bft) 95,74 %
06.09.2018 13:44 19,1 C 21,1 C 17,8 C 98 % 1010,3 hPa 0,0 l/m 0 min 0 min 330 W/m 2,3 km/h (1 Bft) 97,87 %
06.09.2018 13:46 19,1 C 21,1 C 17,8 C 98 % 1010,2 hPa 0,0 l/m 0 min 0 min 307 W/m 9,0 km/h (2 Bft) 97,83 %
06.09.2018 13:48 19,1 C 20,6 C 17,8 C 98 % 1010,4 hPa 0,0 l/m 0 min 0 min 307 W/m 6,8 km/h (2 Bft) 97,87 %
06.09.2018 13:50 19,1 C 20,6 C 17,8 C 98 % 1010,3 hPa 0,0 l/m 0 min 0 min 310 W/m 6,8 km/h (2 Bft) 97,87 %
06.09.2018 13:52 19,1 C 20,6 C 18,3 C 98 % 1010,2 hPa 0,0 l/m 0 min 0 min 313 W/m 4,5 km/h (1 Bft) 100,00 %
06.09.2018 13:54 19,1 C 20,6 C 18,3 C 98 % 1010,2 hPa 0,0 l/m 0 min 0 min 323 W/m 2,3 km/h (1 Bft) 100,00 %
06.09.2018 13:56 19,2 C 21,1 C 18,3 C 98 % 1010,2 hPa 0,0 l/m 0 min 0 min 328 W/m 0,0 km/h (0 Bft) 100,00 %
06.09.2018 13:58 19,2 C 21,1 C 18,3 C 98 % 1010,1 hPa 0,0 l/m 0 min 0 min 323 W/m 2,3 km/h (1 Bft) 97,83 %
06.09.2018 14:00 19,2 C 21,1 C 18,9 C 98 % 1010,1 hPa 0,0 l/m 0 min 0 min 322 W/m 2,3 km/h (1 Bft) 100,00 %
06.09.2018 14:02 19,2 C 21,1 C 18,9 C 97 % 1010,1 hPa 0,0 l/m 0 min 0 min 333 W/m 2,3 km/h (1 Bft) 100,00 %
06.09.2018 14:04 19,2 C 21,1 C 18,9 C 98 % 1010,1 hPa 0,0 l/m 2 min 0 min 376 W/m 0,0 km/h (0 Bft) 100,00 %
06.09.2018 14:06 19,3 C 21,7 C 18,9 C 97 % 1010,1 hPa 0,0 l/m 2 min 0 min 424 W/m 6,8 km/h (2 Bft) 100,00 %
06.09.2018 14:08 19,3 C 22,2 C 19,4 C 97 % 1010,1 hPa 0,0 l/m 2 min 0 min 442 W/m 4,5 km/h (1 Bft) 97,87 %
06.09.2018 14:10 19,4 C 22,2 C 19,4 C 97 % 1010,1 hPa 0,0 l/m 2 min 0 min 484 W/m 6,8 km/h (2 Bft) 100,00 %
06.09.2018 14:12 19,4 C 22,2 C 19,4 C 97 % 1010,1 hPa 0,0 l/m 2 min 0 min 444 W/m 6,8 km/h (2 Bft) 100,00 %
06.09.2018 14:14 19,5 C 22,2 C 19,4 C 96 % 1010,1 hPa 0,0 l/m 2 min 0 min 445 W/m 2,3 km/h (1 Bft) 100,00 %
06.09.2018 14:16 19,5 C 22,8 C 19,4 C 96 % 1010,1 hPa 0,0 l/m 2 min 0 min 507 W/m 0,0 km/h (0 Bft) 100,00 %
06.09.2018 14:18 19,6 C 22,8 C 19,4 C 96 % 1010,0 hPa 0,0 l/m 2 min 0 min 448 W/m 2,3 km/h (1 Bft) 100,00 %
06.09.2018 14:20 19,7 C 22,8 C 19,4 C 95 % 1010,0 hPa 0,0 l/m 2 min 0 min 385 W/m 4,5 km/h (1 Bft) 100,00 %
06.09.2018 14:22 19,8 C 22,2 C 19,4 C 95 % 1010,0 hPa 0,0 l/m 2 min 0 min 400 W/m 2,3 km/h (1 Bft) 100,00 %
06.09.2018 14:24 19,8 C 22,2 C 19,4 C 94 % 1010,0 hPa 0,0 l/m 2 min 0 min 474 W/m 2,3 km/h (1 Bft) 100,00 %
06.09.2018 14:26 19,9 C 22,8 C 19,4 C 94 % 1010,0 hPa 0,0 l/m 2 min 0 min 597 W/m 2,3 km/h (1 Bft) 100,00 %
06.09.2018 14:28 20,0 C 22,8 C 20,0 C 93 % 1009,9 hPa 0,0 l/m 2 min 0 min 642 W/m 2,3 km/h (1 Bft) 100,00 %
06.09.2018 14:30 20,1 C 23,3 C 20,0 C 92 % 1009,9 hPa 0,0 l/m 2 min 0 min 696 W/m 4,5 km/h (1 Bft) 100,00 %
06.09.2018 14:32 20,2 C 23,9 C 19,4 C 92 % 1009,9 hPa 0,0 l/m 2 min 0 min 700 W/m 0,0 km/h (0 Bft) 100,00 %
06.09.2018 14:34 20,4 C 23,9 C 19,4 C 91 % 1009,9 hPa 0,0 l/m 2 min 0 min 512 W/m 2,3 km/h (1 Bft) 100,00 %
06.09.2018 14:36 20,5 C 23,3 C 19,4 C 91 % 1009,9 hPa 0,0 l/m 2 min 0 min 397 W/m 2,3 km/h (1 Bft) 100,00 %
06.09.2018 14:38 20,6 C 22,8 C 19,4 C 91 % 1009,8 hPa 0,0 l/m 0 min 0 min 321 W/m 4,5 km/h (1 Bft) 100,00 %
06.09.2018 14:40 20,6 C 22,8 C 19,4 C 90 % 1009,8 hPa 0,0 l/m 0 min 0 min 282 W/m 2,3 km/h (1 Bft) 100,00 %
06.09.2018 14:42 20,7 C 22,2 C 19,4 C 89 % 1009,8 hPa 0,0 l/m 0 min 0 min 247 W/m 4,5 km/h (1 Bft) 97,87 %
06.09.2018 14:44 20,7 C 22,2 C 19,4 C 89 % 1009,8 hPa 0,0 l/m 0 min 0 min 229 W/m 2,3 km/h (1 Bft) 97,87 %
06.09.2018 14:46 20,8 C 21,7 C 19,4 C 88 % 1009,7 hPa 0,0 l/m 0 min 0 min 204 W/m 4,5 km/h (1 Bft) 97,62 %
06.09.2018 14:48 20,8 C 21,7 C 19,4 C 87 % 1009,7 hPa 0,0 l/m 0 min 0 min 201 W/m 2,3 km/h (1 Bft) 95,74 %
06.09.2018 14:50 20,9 C 21,7 C 19,4 C 87 % 1009,7 hPa 0,0 l/m 0 min 0 min 199 W/m 6,8 km/h (2 Bft) 97,87 %
06.09.2018 14:52 20,9 C 21,1 C 19,4 C 87 % 1009,7 hPa 0,0 l/m 0 min 0 min 196 W/m 4,5 km/h (1 Bft) 97,87 %
06.09.2018 14:54 21,0 C 21,1 C 19,4 C 86 % 1009,7 hPa 0,0 l/m 0 min 0 min 207 W/m 4,5 km/h (1 Bft) 97,87 %
06.09.2018 14:56 21,0 C 21,1 C 19,4 C 86 % 1009,6 hPa 0,0 l/m 0 min 0 min 221 W/m 0,0 km/h (0 Bft) 95,65 %
06.09.2018 14:58 21,0 C 21,7 C 19,4 C 86 % 1009,6 hPa 0,0 l/m 0 min 0 min 203 W/m 2,3 km/h (1 Bft) 97,87 %
06.09.2018 15:00 21,0 C 21,7 C 18,9 C 86 % 1009,7 hPa 0,0 l/m 0 min 0 min 180 W/m 0,0 km/h (0 Bft) 97,87 %
06.09.2018 15:02 21,1 C 21,1 C 19,4 C 86 % 1009,6 hPa 0,0 l/m 0 min 0 min 174 W/m 0,0 km/h (0 Bft) 97,87 %
06.09.2018 15:04 21,1 C 21,1 C 18,9 C 86 % 1009,7 hPa 0,0 l/m 0 min 0 min 185 W/m 0,0 km/h (0 Bft) 97,87 %
06.09.2018 15:06 21,1 C 21,7 C 19,4 C 86 % 1009,7 hPa 0,0 l/m 0 min 0 min 189 W/m 2,3 km/h (1 Bft) 97,87 %
06.09.2018 15:08 21,1 C 21,7 C 18,9 C 86 % 1009,7 hPa 0,0 l/m 0 min 0 min 185 W/m 0,0 km/h (0 Bft) 97,83 %
06.09.2018 15:10 21,2 C 21,7 C 18,9 C 86 % 1009,6 hPa 0,0 l/m 0 min 0 min 184 W/m 2,3 km/h (1 Bft) 95,74 %
06.09.2018 15:12 21,2 C 21,1 C 18,9 C 86 % 1009,6 hPa 0,0 l/m 0 min 0 min 188 W/m 4,5 km/h (1 Bft) 97,87 %
06.09.2018 15:14 21,2 C 21,7 C 18,9 C 86 % 1009,6 hPa 0,0 l/m 0 min 0 min 194 W/m 0,0 km/h (0 Bft) 97,87 %
06.09.2018 15:16 21,2 C 21,7 C 18,9 C 86 % 1009,6 hPa 0,0 l/m 0 min 0 min 196 W/m 2,3 km/h (1 Bft) 97,87 %
06.09.2018 15:18 21,3 C 21,7 C 19,4 C 86 % 1009,5 hPa 0,0 l/m 0 min 0 min 198 W/m 0,0 km/h (0 Bft) 97,83 %
06.09.2018 15:20 21,3 C 21,1 C 19,4 C 86 % 1009,4 hPa 0,0 l/m 0 min 0 min 203 W/m 0,0 km/h (0 Bft) 95,74 %
06.09.2018 15:22 21,3 C 21,1 C 19,4 C 86 % 1009,4 hPa 0,0 l/m 0 min 0 min 227 W/m 0,0 km/h (0 Bft) 97,87 %
06.09.2018 15:24 21,3 C 21,7 C 19,4 C 85 % 1009,4 hPa 0,0 l/m 0 min 0 min 277 W/m 4,5 km/h (1 Bft) 100,00 %
06.09.2018 15:26 21,3 C 21,7 C 19,4 C 85 % 1009,5 hPa 0,0 l/m 0 min 0 min 303 W/m 2,3 km/h (1 Bft) 95,74 %
06.09.2018 15:28 21,3 C 22,2 C 19,4 C 85 % 1009,4 hPa 0,0 l/m 0 min 0 min 301 W/m 2,3 km/h (1 Bft) 97,87 %
06.09.2018 15:30 21,3 C 22,2 C 19,4 C 85 % 1009,4 hPa 0,0 l/m 0 min 0 min 267 W/m 4,5 km/h (1 Bft) 97,83 %
06.09.2018 15:32 21,4 C 21,7 C 19,4 C 85 % 1009,4 hPa 0,0 l/m 0 min 0 min 237 W/m 2,3 km/h (1 Bft) 100,00 %
06.09.2018 15:34 21,4 C 21,7 C 19,4 C 85 % 1009,4 hPa 0,0 l/m 0 min 0 min 217 W/m 2,3 km/h (1 Bft) 95,74 %
06.09.2018 15:36 21,4 C 21,7 C 19,4 C 85 % 1009,4 hPa 0,0 l/m 0 min 0 min 181 W/m 2,3 km/h (1 Bft) 95,74 %
06.09.2018 15:38 21,4 C 21,7 C 19,4 C 85 % 1009,4 hPa 0,0 l/m 0 min 0 min 157 W/m 2,3 km/h (1 Bft) 97,87 %
06.09.2018 15:40 21,4 C 21,7 C 19,4 C 85 % 1009,3 hPa 0,0 l/m 0 min 0 min 138 W/m 0,0 km/h (0 Bft) 97,87 %
06.09.2018 15:42 21,4 C 21,1 C 19,4 C 85 % 1009,3 hPa 0,0 l/m 0 min 0 min 124 W/m 4,5 km/h (1 Bft) 93,48 %
06.09.2018 15:44 21,4 C 21,1 C 19,4 C 84 % 1009,4 hPa 0,0 l/m 0 min 0 min 108 W/m 2,3 km/h (1 Bft) 95,74 %
06.09.2018 15:46 21,4 C 20,6 C 19,4 C 84 % 1009,3 hPa 0,0 l/m 0 min 0 min 90 W/m 4,5 km/h (1 Bft) 95,74 %
06.09.2018 15:48 21,4 C 20,6 C 19,4 C 84 % 1009,3 hPa 0,0 l/m 0 min 0 min 78 W/m 2,3 km/h (1 Bft) 97,87 %
06.09.2018 15:50 21,4 C 20,6 C 19,4 C 84 % 1009,4 hPa 0,0 l/m 0 min 0 min 70 W/m 6,8 km/h (2 Bft) 97,87 %
06.09.2018 15:52 21,4 C 20,6 C 19,4 C 83 % 1009,4 hPa 0,0 l/m 0 min 0 min 68 W/m 2,3 km/h (1 Bft) 95,74 %
06.09.2018 15:54 21,3 C 20,6 C 19,4 C 83 % 1009,3 hPa 0,0 l/m 0 min 0 min 79 W/m 0,0 km/h (0 Bft) 93,48 %
06.09.2018 15:56 21,3 C 20,6 C 19,4 C 83 % 1009,4 hPa 0,0 l/m 0 min 0 min 100 W/m 0,0 km/h (0 Bft) 93,62 %
06.09.2018 15:58 21,3 C 20,6 C 19,4 C 84 % 1009,3 hPa 0,0 l/m 0 min 0 min 124 W/m 2,3 km/h (1 Bft) 95,74 %
06.09.2018 16:00 21,3 C 20,6 C 19,4 C 84 % 1009,3 hPa 0,0 l/m 0 min 0 min 145 W/m 4,5 km/h (1 Bft) 91,49 %
06.09.2018 16:02 21,3 C 20,6 C 19,4 C 84 % 1009,3 hPa 0,0 l/m 0 min 0 min 139 W/m 2,3 km/h (1 Bft) 93,62 %
06.09.2018 16:04 21,3 C 20,6 C 19,4 C 84 % 1009,3 hPa 0,0 l/m 0 min 0 min 120 W/m 2,3 km/h (1 Bft) 95,74 %
06.09.2018 16:06 21,3 C 20,6 C 19,4 C 84 % 1009,3 hPa 0,0 l/m 0 min 0 min 107 W/m 4,5 km/h (1 Bft) 96,15 %
06.09.2018 16:08 21,3 C 20,6 C 19,4 C 84 % 1009,3 hPa 0,0 l/m 0 min 0 min 103 W/m 0,0 km/h (0 Bft) 97,87 %
06.09.2018 16:10 21,2 C 20,6 C 19,4 C 84 % 1009,3 hPa 0,0 l/m 0 min 0 min 117 W/m 2,3 km/h (1 Bft) 95,74 %
06.09.2018 16:12 21,2 C 20,6 C 19,4 C 84 % 1009,3 hPa 0,0 l/m 0 min 0 min 144 W/m 2,3 km/h (1 Bft) 95,74 %
06.09.2018 16:14 21,2 C 20,6 C 19,4 C 84 % 1009,2 hPa 0,0 l/m 0 min 0 min 166 W/m 2,3 km/h (1 Bft) 93,62 %
06.09.2018 16:16 21,2 C 21,1 C 19,4 C 85 % 1009,2 hPa 0,0 l/m 0 min 0 min 181 W/m 0,0 km/h (0 Bft) 95,74 %
06.09.2018 16:18 21,2 C 21,1 C 19,4 C 85 % 1009,1 hPa 0,0 l/m 0 min 0 min 204 W/m 0,0 km/h (0 Bft) 95,65 %
06.09.2018 16:20 21,2 C 21,7 C 20,0 C 85 % 1009,2 hPa 0,0 l/m 0 min 0 min 245 W/m 0,0 km/h (0 Bft) 95,74 %
06.09.2018 16:22 21,2 C 21,7 C 20,0 C 85 % 1009,2 hPa 0,0 l/m 2 min 0 min 291 W/m 0,0 km/h (0 Bft) 95,83 %
06.09.2018 16:24 21,3 C 22,2 C 20,0 C 85 % 1009,2 hPa 0,0 l/m 2 min 0 min 378 W/m 6,8 km/h (2 Bft) 97,87 %
06.09.2018 16:26 21,3 C 22,2 C 20,0 C 85 % 1009,2 hPa 0,0 l/m 2 min 0 min 368 W/m 2,3 km/h (1 Bft) 97,87 %
06.09.2018 16:28 21,3 C 22,2 C 20,0 C 85 % 1009,2 hPa 0,0 l/m 2 min 0 min 399 W/m 6,8 km/h (2 Bft) 97,87 %
06.09.2018 16:30 21,3 C 22,8 C 20,0 C 85 % 1009,1 hPa 0,0 l/m 2 min 0 min 414 W/m 6,8 km/h (2 Bft) 97,83 %
06.09.2018 16:32 21,4 C 22,2 C 20,0 C 84 % 1009,2 hPa 0,0 l/m 2 min 0 min 322 W/m 11,3 km/h (2 Bft) 95,74 %
06.09.2018 16:34 21,4 C 22,2 C 20,0 C 84 % 1009,2 hPa 0,0 l/m 2 min 0 min 280 W/m 4,5 km/h (1 Bft) 97,87 %
06.09.2018 16:36 21,4 C 21,7 C 20,0 C 84 % 1009,1 hPa 0,0 l/m 0 min 0 min 252 W/m 6,8 km/h (2 Bft) 97,87 %
06.09.2018 16:38 21,5 C 21,7 C 20,0 C 84 % 1009,1 hPa 0,0 l/m 0 min 0 min 235 W/m 4,5 km/h (1 Bft) 97,87 %
06.09.2018 16:40 21,5 C 21,7 C 20,0 C 84 % 1009,1 hPa 0,0 l/m 2 min 0 min 261 W/m 4,5 km/h (1 Bft) 97,87 %
06.09.2018 16:42 21,5 C 21,7 C 20,0 C 83 % 1009,0 hPa 0,0 l/m 2 min 0 min 327 W/m 4,5 km/h (1 Bft) 97,83 %
06.09.2018 16:44 21,6 C 22,8 C 20,0 C 84 % 1009,0 hPa 0,0 l/m 2 min 0 min 522 W/m 4,5 km/h (1 Bft) 97,87 %
06.09.2018 16:46 21,6 C 23,3 C 20,6 C 84 % 1009,0 hPa 0,0 l/m 2 min 0 min 587 W/m 4,5 km/h (1 Bft) 97,87 %
06.09.2018 16:48 21,7 C 23,3 C 20,6 C 83 % 1009,0 hPa 0,0 l/m 2 min 0 min 524 W/m 4,5 km/h (1 Bft) 95,74 %
06.09.2018 16:50 21,7 C 23,3 C 20,6 C 83 % 1009,0 hPa 0,0 l/m 2 min 0 min 450 W/m 2,3 km/h (1 Bft) 97,87 %
06.09.2018 16:52 21,8 C 22,8 C 20,6 C 83 % 1009,0 hPa 0,0 l/m 2 min 0 min 397 W/m 2,3 km/h (1 Bft) 100,00 %
06.09.2018 16:54 21,8 C 22,8 C 20,6 C 83 % 1009,0 hPa 0,0 l/m 2 min 0 min 318 W/m 2,3 km/h (1 Bft) 97,83 %
06.09.2018 16:56 21,9 C 22,2 C 20,6 C 83 % 1008,9 hPa 0,0 l/m 0 min 0 min 223 W/m 4,5 km/h (1 Bft) 100,00 %
06.09.2018 16:58 21,9 C 22,2 C 20,0 C 82 % 1008,9 hPa 0,0 l/m 0 min 0 min 174 W/m 6,8 km/h (2 Bft) 100,00 %
06.09.2018 17:00 21,9 C 21,7 C 20,0 C 82 % 1009,0 hPa 0,0 l/m 0 min 0 min 146 W/m 4,5 km/h (1 Bft) 100,00 %
06.09.2018 17:02 21,9 C 21,7 C 20,0 C 81 % 1009,0 hPa 0,0 l/m 0 min 0 min 124 W/m 4,5 km/h (1 Bft) 100,00 %
06.09.2018 17:04 21,9 C 21,1 C 20,0 C 81 % 1009,0 hPa 0,0 l/m 0 min 0 min 108 W/m 6,8 km/h (2 Bft) 100,00 %
06.09.2018 17:06 21,9 C 21,1 C 20,0 C 81 % 1009,0 hPa 0,0 l/m 0 min 0 min 95 W/m 4,5 km/h (1 Bft) 100,00 %
06.09.2018 17:08 21,9 C 21,1 C 20,0 C 81 % 1009,0 hPa 0,0 l/m 0 min 0 min 92 W/m 4,5 km/h (1 Bft) 100,00 %
06.09.2018 17:10 21,8 C 20,6 C 20,0 C 81 % 1009,0 hPa 0,0 l/m 0 min 0 min 100 W/m 4,5 km/h (1 Bft) 100,00 %
06.09.2018 17:12 21,8 C 20,6 C 19,4 C 81 % 1008,9 hPa 0,0 l/m 0 min 0 min 112 W/m 6,8 km/h (2 Bft) 100,00 %
06.09.2018 17:14 21,8 C 20,6 C 19,4 C 81 % 1008,9 hPa 0,0 l/m 0 min 0 min 123 W/m 6,8 km/h (2 Bft) 100,00 %
06.09.2018 17:16 21,8 C 20,6 C 19,4 C 81 % 1008,8 hPa 0,0 l/m 0 min 0 min 125 W/m 6,8 km/h (2 Bft) 97,83 %
06.09.2018 17:18 21,7 C 20,6 C 19,4 C 81 % 1008,9 hPa 0,0 l/m 0 min 0 min 123 W/m 4,5 km/h (1 Bft) 100,00 %
06.09.2018 17:20 21,7 C 20,6 C 19,4 C 81 % 1008,9 hPa 0,0 l/m 0 min 0 min 110 W/m 9,0 km/h (2 Bft) 100,00 %
06.09.2018 17:22 21,7 C 20,6 C 19,4 C 81 % 1008,9 hPa 0,0 l/m 0 min 0 min 91 W/m 2,3 km/h (1 Bft) 97,87 %
06.09.2018 17:24 21,7 C 20,6 C 19,4 C 81 % 1008,9 hPa 0,0 l/m 0 min 0 min 115 W/m 4,5 km/h (1 Bft) 100,00 %
06.09.2018 17:26 21,6 C 21,1 C 19,4 C 82 % 1008,8 hPa 0,0 l/m 0 min 0 min 164 W/m 2,3 km/h (1 Bft) 100,00 %
06.09.2018 17:28 21,6 C 21,1 C 20,0 C 82 % 1008,9 hPa 0,0 l/m 0 min 0 min 189 W/m 4,5 km/h (1 Bft) 100,00 %
06.09.2018 17:30 21,6 C 21,1 C 20,0 C 82 % 1008,9 hPa 0,0 l/m 2 min 0 min 227 W/m 6,8 km/h (2 Bft) 100,00 %
06.09.2018 17:32 21,6 C 21,1 C 20,0 C 82 % 1008,7 hPa 0,0 l/m 2 min 0 min 197 W/m 9,0 km/h (2 Bft) 97,30 %
06.09.2018 17:34 21,6 C 21,1 C 20,0 C 82 % 1008,7 hPa 0,0 l/m 0 min 0 min 162 W/m 4,5 km/h (1 Bft) 100,00 %
06.09.2018 17:36 21,6 C 21,1 C 20,0 C 82 % 1008,7 hPa 0,0 l/m 0 min 0 min 149 W/m 6,8 km/h (2 Bft) 100,00 %
06.09.2018 17:38 21,6 C 21,1 C 20,0 C 82 % 1008,7 hPa 0,0 l/m 2 min 0 min 196 W/m 4,5 km/h (1 Bft) 100,00 %
06.09.2018 17:40 21,5 C 21,1 C 20,0 C 82 % 1008,8 hPa 0,0 l/m 0 min 0 min 156 W/m 6,8 km/h (2 Bft) 100,00 %
06.09.2018 17:42 21,5 C 21,1 C 20,0 C 82 % 1008,8 hPa 0,0 l/m 0 min 0 min 106 W/m 4,5 km/h (1 Bft) 97,83 %
06.09.2018 17:44 21,5 C 20,6 C 20,0 C 82 % 1008,8 hPa 0,0 l/m 0 min 0 min 80 W/m 4,5 km/h (1 Bft) 97,87 %
06.09.2018 17:46 21,4 C 20,6 C 19,4 C 82 % 1008,7 hPa 0,0 l/m 0 min 0 min 71 W/m 4,5 km/h (1 Bft) 97,87 %
06.09.2018 17:48 21,4 C 20,6 C 19,4 C 82 % 1008,8 hPa 0,0 l/m 0 min 0 min 70 W/m 6,8 km/h (2 Bft) 97,87 %
06.09.2018 17:50 21,4 C 20,6 C 19,4 C 82 % 1008,7 hPa 0,0 l/m 0 min 0 min 76 W/m 4,5 km/h (1 Bft) 97,87 %
06.09.2018 17:52 21,4 C 20,6 C 19,4 C 82 % 1008,7 hPa 0,0 l/m 0 min 0 min 142 W/m 4,5 km/h (1 Bft) 97,87 %
06.09.2018 17:54 21,3 C 20,6 C 19,4 C 82 % 1008,7 hPa 0,0 l/m 0 min 0 min 125 W/m 6,8 km/h (2 Bft) 100,00 %
06.09.2018 17:56 21,3 C 20,6 C 19,4 C 82 % 1008,8 hPa 0,0 l/m 0 min 0 min 142 W/m 9,0 km/h (2 Bft) 97,87 %
06.09.2018 17:58 21,3 C 20,6 C 19,4 C 81 % 1008,7 hPa 0,0 l/m 2 min 0 min 182 W/m 4,5 km/h (1 Bft) 97,87 %
06.09.2018 18:00 21,3 C 21,1 C 19,4 C 82 % 1008,7 hPa 0,0 l/m 2 min 0 min 289 W/m 6,8 km/h (2 Bft) 95,74 %
06.09.2018 18:02 21,3 C 21,1 C 20,0 C 82 % 1008,7 hPa 0,0 l/m 2 min 0 min 246 W/m 13,5 km/h (3 Bft) 97,87 %
06.09.2018 18:04 21,3 C 21,1 C 20,0 C 82 % 1008,7 hPa 0,0 l/m 2 min 0 min 243 W/m 9,0 km/h (2 Bft) 97,87 %
06.09.2018 18:06 21,3 C 21,1 C 20,0 C 83 % 1008,6 hPa 0,0 l/m 2 min 0 min 212 W/m 9,0 km/h (2 Bft) 97,83 %
06.09.2018 18:08 21,3 C 21,1 C 20,0 C 83 % 1008,6 hPa 0,0 l/m 2 min 0 min 179 W/m 9,0 km/h (2 Bft) 95,74 %
06.09.2018 18:10 21,3 C 20,6 C 19,4 C 83 % 1008,7 hPa 0,0 l/m 0 min 0 min 142 W/m 6,8 km/h (2 Bft) 93,62 %
06.09.2018 18:12 21,3 C 20,6 C 19,4 C 83 % 1008,6 hPa 0,0 l/m 0 min 0 min 118 W/m 15,8 km/h (3 Bft) 93,62 %
06.09.2018 18:14 21,3 C 20,6 C 19,4 C 83 % 1008,7 hPa 0,0 l/m 0 min 0 min 106 W/m 15,8 km/h (3 Bft) 95,74 %
06.09.2018 18:16 21,2 C 20,0 C 19,4 C 83 % 1008,7 hPa 0,0 l/m 0 min 0 min 94 W/m 4,5 km/h (1 Bft) 95,74 %
06.09.2018 18:18 21,2 C 20,0 C 19,4 C 83 % 1008,6 hPa 0,0 l/m 0 min 0 min 86 W/m 4,5 km/h (1 Bft) 93,48 %
06.09.2018 18:20 21,2 C 20,0 C 18,9 C 83 % 1008,7 hPa 0,0 l/m 0 min 0 min 80 W/m 11,3 km/h (2 Bft) 93,62 %
06.09.2018 18:22 21,1 C 20,0 C 18,9 C 83 % 1008,6 hPa 0,0 l/m 0 min 0 min 79 W/m 11,3 km/h (2 Bft) 95,74 %
06.09.2018 18:24 21,0 C 19,4 C 18,9 C 83 % 1008,7 hPa 0,0 l/m 0 min 0 min 85 W/m 9,0 km/h (2 Bft) 95,74 %
06.09.2018 18:26 21,0 C 19,4 C 18,9 C 83 % 1008,7 hPa 0,0 l/m 0 min 0 min 94 W/m 9,0 km/h (2 Bft) 95,74 %
06.09.2018 18:28 20,9 C 19,4 C 18,9 C 83 % 1008,7 hPa 0,0 l/m 0 min 0 min 100 W/m 6,8 km/h (2 Bft) 95,74 %
06.09.2018 18:30 20,9 C 20,0 C 18,9 C 83 % 1008,8 hPa 0,0 l/m 0 min 0 min 100 W/m 6,8 km/h (2 Bft) 93,48 %
06.09.2018 18:32 20,8 C 20,0 C 18,9 C 84 % 1008,7 hPa 0,0 l/m 0 min 0 min 96 W/m 6,8 km/h (2 Bft) 93,62 %
06.09.2018 18:34 20,8 C 19,4 C 18,9 C 84 % 1008,7 hPa 0,0 l/m 0 min 0 min 93 W/m 6,8 km/h (2 Bft) 95,74 %
06.09.2018 18:36 20,8 C 20,0 C 18,9 C 84 % 1008,7 hPa 0,0 l/m 2 min 0 min 122 W/m 9,0 km/h (2 Bft) 97,87 %
06.09.2018 18:38 20,7 C 20,0 C 18,9 C 84 % 1008,8 hPa 0,0 l/m 2 min 0 min 125 W/m 13,5 km/h (3 Bft) 93,62 %
06.09.2018 18:40 20,7 C 20,0 C 18,9 C 84 % 1008,7 hPa 0,0 l/m 2 min 0 min 172 W/m 6,8 km/h (2 Bft) 95,74 %
06.09.2018 18:42 20,7 C 20,0 C 18,9 C 84 % 1008,8 hPa 0,0 l/m 2 min 0 min 183 W/m 6,8 km/h (2 Bft) 97,83 %
06.09.2018 18:44 20,6 C 20,0 C 18,9 C 84 % 1008,8 hPa 0,0 l/m 2 min 0 min 168 W/m 11,3 km/h (2 Bft) 95,74 %
06.09.2018 18:46 20,6 C 20,0 C 18,9 C 84 % 1008,8 hPa 0,0 l/m 2 min 0 min 155 W/m 9,0 km/h (2 Bft) 97,87 %
06.09.2018 18:48 20,6 C 20,0 C 18,9 C 84 % 1008,9 hPa 0,0 l/m 2 min 0 min 143 W/m 13,5 km/h (3 Bft) 95,74 %
06.09.2018 18:50 20,6 C 20,0 C 18,9 C 84 % 1008,8 hPa 0,0 l/m 2 min 0 min 147 W/m 6,8 km/h (2 Bft) 96,55 %
06.09.2018 18:52 20,6 C 20,0 C 18,9 C 84 % 1008,9 hPa 0,0 l/m 2 min 0 min 147 W/m 4,5 km/h (1 Bft) 100,00 %
06.09.2018 18:54 20,6 C 20,0 C 18,9 C 84 % 1008,9 hPa 0,0 l/m 2 min 0 min 129 W/m 9,0 km/h (2 Bft) 95,65 %
06.09.2018 18:56 20,6 C 20,6 C 18,9 C 84 % 1008,9 hPa 0,0 l/m 2 min 0 min 120 W/m 6,8 km/h (2 Bft) 100,00 %
06.09.2018 18:58 20,5 C 20,6 C 18,9 C 84 % 1009,0 hPa 0,0 l/m 2 min 0 min 117 W/m 6,8 km/h (2 Bft) 97,87 %
06.09.2018 19:00 20,6 C 20,6 C 18,9 C 84 % 1008,9 hPa 0,0 l/m 2 min 0 min 103 W/m 6,8 km/h (2 Bft) 97,87 %
06.09.2018 19:02 20,5 C 20,0 C 18,9 C 84 % 1009,0 hPa 0,0 l/m 2 min 0 min 83 W/m 13,5 km/h (3 Bft) 100,00 %
06.09.2018 19:04 20,5 C 20,0 C 18,9 C 83 % 1009,0 hPa 0,0 l/m 0 min 0 min 70 W/m 13,5 km/h (3 Bft) 95,65 %
06.09.2018 19:06 20,5 C 20,0 C 18,9 C 83 % 1009,0 hPa 0,0 l/m 0 min 0 min 63 W/m 9,0 km/h (2 Bft) 95,74 %
06.09.2018 19:08 20,5 C 19,4 C 18,9 C 83 % 1009,0 hPa 0,0 l/m 0 min 0 min 60 W/m 4,5 km/h (1 Bft) 97,87 %
06.09.2018 19:10 20,4 C 19,4 C 18,9 C 82 % 1009,0 hPa 0,0 l/m 0 min 0 min 58 W/m 6,8 km/h (2 Bft) 97,87 %
06.09.2018 19:12 20,4 C 19,4 C 18,9 C 82 % 1009,1 hPa 0,0 l/m 0 min 0 min 53 W/m 11,3 km/h (2 Bft) 93,62 %
06.09.2018 19:14 20,3 C 19,4 C 18,9 C 82 % 1009,1 hPa 0,0 l/m 0 min 0 min 51 W/m 13,5 km/h (3 Bft) 95,74 %
06.09.2018 19:16 20,3 C 19,4 C 18,9 C 81 % 1009,1 hPa 0,0 l/m 0 min 0 min 51 W/m 13,5 km/h (3 Bft) 97,83 %
06.09.2018 19:18 20,3 C 19,4 C 18,3 C 81 % 1009,2 hPa 0,0 l/m 0 min 0 min 51 W/m 13,5 km/h (3 Bft) 97,87 %
06.09.2018 19:20 20,2 C 19,4 C 18,3 C 81 % 1009,2 hPa 0,0 l/m 0 min 0 min 50 W/m 11,3 km/h (2 Bft) 98,31 %
06.09.2018 19:22 20,2 C 18,9 C 18,3 C 81 % 1009,2 hPa 0,0 l/m 0 min 0 min 49 W/m 13,5 km/h (3 Bft) 97,14 %
06.09.2018 19:24 20,1 C 18,9 C 18,3 C 81 % 1009,2 hPa 0,0 l/m 0 min 0 min 47 W/m 13,5 km/h (3 Bft) 97,87 %
06.09.2018 19:26 20,1 C 18,9 C 18,3 C 81 % 1009,1 hPa 0,0 l/m 0 min 0 min 46 W/m 9,0 km/h (2 Bft) 97,87 %
06.09.2018 19:28 20,1 C 18,9 C 18,3 C 81 % 1009,1 hPa 0,0 l/m 0 min 0 min 45 W/m 9,0 km/h (2 Bft) 97,83 %
06.09.2018 19:30 20,0 C 18,9 C 18,3 C 81 % 1009,1 hPa 0,0 l/m 0 min 0 min 41 W/m 18,0 km/h (3 Bft) 97,87 %
06.09.2018 19:32 19,9 C 18,9 C 18,3 C 81 % 1009,2 hPa 0,0 l/m 0 min 0 min 38 W/m 13,5 km/h (3 Bft) 97,87 %
06.09.2018 19:34 19,9 C 18,9 C 18,3 C 82 % 1009,2 hPa 0,0 l/m 0 min 0 min 35 W/m 13,5 km/h (3 Bft) 95,74 %
06.09.2018 19:36 19,9 C 18,3 C 17,8 C 82 % 1009,3 hPa 0,0 l/m 0 min 0 min 33 W/m 15,8 km/h (3 Bft) 97,87 %
06.09.2018 19:38 19,8 C 18,3 C 17,8 C 82 % 1009,2 hPa 0,0 l/m 0 min 0 min 31 W/m 9,0 km/h (2 Bft) 97,87 %
06.09.2018 19:40 19,8 C 18,3 C 17,8 C 82 % 1009,3 hPa 0,0 l/m 0 min 0 min 28 W/m 11,3 km/h (2 Bft) 97,83 %
06.09.2018 19:42 19,7 C 18,3 C 17,8 C 82 % 1009,3 hPa 0,0 l/m 0 min 0 min 25 W/m 6,8 km/h (2 Bft) 97,87 %
06.09.2018 19:44 19,7 C 18,3 C 17,8 C 83 % 1009,2 hPa 0,0 l/m 0 min 0 min 22 W/m 15,8 km/h (3 Bft) 95,74 %
06.09.2018 19:46 19,6 C 18,3 C 17,8 C 83 % 1009,2 hPa 0,0 l/m 0 min 0 min 21 W/m 13,5 km/h (3 Bft) 97,87 %
06.09.2018 19:48 19,5 C 18,3 C 17,8 C 83 % 1009,3 hPa 0,0 l/m 0 min 0 min 19 W/m 11,3 km/h (2 Bft) 97,87 %
06.09.2018 19:50 19,4 C 18,3 C 17,8 C 83 % 1009,3 hPa 0,0 l/m 0 min 0 min 19 W/m 6,8 km/h (2 Bft) 97,87 %
06.09.2018 19:52 19,4 C 17,8 C 17,8 C 83 % 1009,3 hPa 0,0 l/m 0 min 0 min 19 W/m 13,5 km/h (3 Bft) 97,83 %
06.09.2018 19:54 19,3 C 17,8 C 17,8 C 83 % 1009,4 hPa 0,0 l/m 0 min 0 min 18 W/m 13,5 km/h (3 Bft) 97,87 %
06.09.2018 19:56 19,3 C 17,8 C 17,8 C 83 % 1009,5 hPa 0,0 l/m 0 min 0 min 18 W/m 13,5 km/h (3 Bft) 97,87 %
06.09.2018 19:58 19,2 C 17,8 C 17,2 C 83 % 1009,5 hPa 0,0 l/m 0 min 0 min 16 W/m 13,5 km/h (3 Bft) 100,00 %
06.09.2018 20:00 19,2 C 17,8 C 17,2 C 84 % 1009,5 hPa 0,0 l/m 0 min 0 min 14 W/m 11,3 km/h (2 Bft) 100,00 %
06.09.2018 20:02 19,1 C 17,8 C 17,2 C 84 % 1009,5 hPa 0,0 l/m 0 min 0 min 13 W/m 13,5 km/h (3 Bft) 100,00 %
06.09.2018 20:04 19,1 C 17,8 C 17,2 C 84 % 1009,4 hPa 0,0 l/m 0 min 0 min 12 W/m 15,8 km/h (3 Bft) 100,00 %
06.09.2018 20:06 19,0 C 17,8 C 17,2 C 84 % 1009,4 hPa 0,0 l/m 0 min 0 min 12 W/m 20,3 km/h (4 Bft) 100,00 %
06.09.2018 20:08 18,9 C 17,8 C 17,2 C 84 % 1009,5 hPa 0,0 l/m 0 min 0 min 11 W/m 11,3 km/h (2 Bft) 100,00 %
06.09.2018 20:10 18,9 C 17,8 C 17,2 C 84 % 1009,4 hPa 0,0 l/m 0 min 0 min 11 W/m 13,5 km/h (3 Bft) 100,00 %
06.09.2018 20:12 18,8 C 17,2 C 17,2 C 84 % 1009,4 hPa 0,0 l/m 0 min 0 min 9 W/m 13,5 km/h (3 Bft) 100,00 %
06.09.2018 20:14 18,8 C 17,2 C 17,2 C 84 % 1009,4 hPa 0,0 l/m 0 min 0 min 8 W/m 13,5 km/h (3 Bft) 100,00 %
06.09.2018 20:16 18,7 C 17,2 C 17,2 C 84 % 1009,4 hPa 0,0 l/m 0 min 0 min 7 W/m 11,3 km/h (2 Bft) 97,83 %
06.09.2018 20:18 18,6 C 17,2 C 17,2 C 84 % 1009,4 hPa 0,0 l/m 0 min 0 min 5 W/m 9,0 km/h (2 Bft) 100,00 %
06.09.2018 20:20 18,6 C 17,2 C 16,7 C 84 % 1009,5 hPa 0,0 l/m 0 min 0 min 0 W/m 15,8 km/h (3 Bft) 100,00 %
06.09.2018 20:22 18,5 C 17,2 C 16,7 C 84 % 1009,5 hPa 0,0 l/m 0 min 0 min 0 W/m 11,3 km/h (2 Bft) 100,00 %
06.09.2018 20:24 18,4 C 17,2 C 16,7 C 84 % 1009,5 hPa 0,0 l/m 0 min 0 min 0 W/m 13,5 km/h (3 Bft) 100,00 %
06.09.2018 20:26 18,4 C 17,2 C 16,7 C 84 % 1009,6 hPa 0,0 l/m 0 min 0 min 0 W/m 13,5 km/h (3 Bft) 100,00 %
06.09.2018 20:28 18,3 C 17,2 C 16,7 C 84 % 1009,7 hPa 0,0 l/m 0 min 0 min 0 W/m 9,0 km/h (2 Bft) 100,00 %
06.09.2018 20:30 18,3 C 16,7 C 16,7 C 85 % 1009,6 hPa 0,0 l/m 0 min 0 min 0 W/m 11,3 km/h (2 Bft) 100,00 %
06.09.2018 20:32 18,3 C 16,7 C 16,7 C 85 % 1009,6 hPa 0,0 l/m 0 min 0 min 0 W/m 11,3 km/h (2 Bft) 100,00 %
06.09.2018 20:34 18,2 C 16,7 C 16,7 C 85 % 1009,6 hPa 0,0 l/m 0 min 0 min 0 W/m 4,5 km/h (1 Bft) 100,00 %
06.09.2018 20:36 18,2 C 16,7 C 16,7 C 85 % 1009,6 hPa 0,0 l/m 0 min 0 min 0 W/m 9,0 km/h (2 Bft) 100,00 %
06.09.2018 20:38 18,2 C 16,7 C 16,7 C 85 % 1009,8 hPa 0,0 l/m 0 min 0 min 0 W/m 6,8 km/h (2 Bft) 100,00 %
06.09.2018 20:40 18,1 C 16,7 C 16,7 C 85 % 1009,7 hPa 0,0 l/m 0 min 0 min 0 W/m 9,0 km/h (2 Bft) 100,00 %
06.09.2018 20:42 18,1 C 16,7 C 16,7 C 86 % 1009,7 hPa 0,0 l/m 0 min 0 min 0 W/m 6,8 km/h (2 Bft) 100,00 %
06.09.2018 20:44 18,0 C 16,7 C 16,7 C 86 % 1009,7 hPa 0,0 l/m 0 min 0 min 0 W/m 6,8 km/h (2 Bft) 97,87 %
06.09.2018 20:46 18,0 C 16,7 C 16,7 C 86 % 1009,8 hPa 0,0 l/m 0 min 0 min 0 W/m 6,8 km/h (2 Bft) 97,87 %
06.09.2018 20:48 17,9 C 16,7 C 16,7 C 86 % 1009,7 hPa 0,0 l/m 0 min 0 min 0 W/m 9,0 km/h (2 Bft) 95,74 %
06.09.2018 20:50 17,9 C 16,7 C 16,7 C 86 % 1009,8 hPa 0,0 l/m 0 min 0 min 0 W/m 6,8 km/h (2 Bft) 97,83 %
06.09.2018 20:52 17,9 C 16,7 C 16,1 C 86 % 1009,8 hPa 0,0 l/m 0 min 0 min 0 W/m 11,3 km/h (2 Bft) 97,87 %
06.09.2018 20:54 17,8 C 16,7 C 16,1 C 86 % 1009,8 hPa 0,0 l/m 0 min 0 min 0 W/m 11,3 km/h (2 Bft) 97,87 %
06.09.2018 20:56 17,8 C 16,7 C 16,1 C 86 % 1009,8 hPa 0,0 l/m 0 min 0 min 0 W/m 9,0 km/h (2 Bft) 97,87 %
06.09.2018 20:58 17,8 C 16,7 C 16,1 C 86 % 1009,8 hPa 0,0 l/m 0 min 0 min 0 W/m 4,5 km/h (1 Bft) 97,87 %
06.09.2018 21:00 17,7 C 16,7 C 16,1 C 87 % 1009,8 hPa 0,0 l/m 0 min 0 min 0 W/m 2,3 km/h (1 Bft) 95,74 %
06.09.2018 21:02 17,7 C 16,1 C 16,1 C 87 % 1009,8 hPa 0,0 l/m 0 min 0 min 0 W/m 6,8 km/h (2 Bft) 93,48 %
06.09.2018 21:04 17,7 C 16,1 C 16,1 C 87 % 1009,8 hPa 0,0 l/m 0 min 0 min 0 W/m 2,3 km/h (1 Bft) 95,74 %
06.09.2018 21:06 17,7 C 16,1 C 16,1 C 87 % 1009,9 hPa 0,0 l/m 0 min 0 min 0 W/m 0,0 km/h (0 Bft) 95,74 %
06.09.2018 21:08 17,6 C 16,1 C 16,1 C 87 % 1009,8 hPa 0,0 l/m 0 min 0 min 0 W/m 2,3 km/h (1 Bft) 95,74 %
06.09.2018 21:10 17,6 C 16,1 C 16,1 C 87 % 1009,9 hPa 0,0 l/m 0 min 0 min 0 W/m 2,3 km/h (1 Bft) 95,74 %
06.09.2018 21:12 17,6 C 16,1 C 16,1 C 87 % 1009,9 hPa 0,0 l/m 0 min 0 min 0 W/m 4,5 km/h (1 Bft) 93,62 %
06.09.2018 21:14 17,5 C 16,1 C 16,1 C 87 % 1010,0 hPa 0,0 l/m 0 min 0 min 0 W/m 2,3 km/h (1 Bft) 95,65 %
06.09.2018 21:16 17,5 C 16,1 C 16,1 C 87 % 1010,0 hPa 0,0 l/m 0 min 0 min 0 W/m 4,5 km/h (1 Bft) 93,62 %
06.09.2018 21:18 17,4 C 16,1 C 16,1 C 87 % 1010,0 hPa 0,0 l/m 0 min 0 min 0 W/m 4,5 km/h (1 Bft) 95,74 %
06.09.2018 21:20 17,4 C 16,1 C 16,1 C 88 % 1010,0 hPa 0,0 l/m 0 min 0 min 0 W/m 4,5 km/h (1 Bft) 95,74 %
06.09.2018 21:22 17,4 C 15,6 C 16,1 C 88 % 1010,0 hPa 0,0 l/m 0 min 0 min 0 W/m 2,3 km/h (1 Bft) 97,87 %
06.09.2018 21:24 17,3 C 15,6 C 16,1 C 88 % 1010,0 hPa 0,0 l/m 0 min 0 min 0 W/m 6,8 km/h (2 Bft) 95,74 %
06.09.2018 21:26 17,3 C 15,6 C 16,1 C 88 % 1010,0 hPa 0,0 l/m 0 min 0 min 0 W/m 4,5 km/h (1 Bft) 95,65 %
06.09.2018 21:28 17,2 C 15,6 C 15,6 C 88 % 1010,0 hPa 0,0 l/m 0 min 0 min 0 W/m 0,0 km/h (0 Bft) 95,74 %
06.09.2018 21:30 17,2 C 15,6 C 16,1 C 88 % 1010,0 hPa 0,0 l/m 0 min 0 min 0 W/m 0,0 km/h (0 Bft) 93,62 %
06.09.2018 21:32 17,2 C 15,6 C 15,6 C 88 % 1010,1 hPa 0,0 l/m 0 min 0 min 0 W/m 0,0 km/h (0 Bft) 93,62 %
06.09.2018 21:34 17,2 C 15,6 C 15,6 C 88 % 1010,1 hPa 0,0 l/m 0 min 0 min 0 W/m 0,0 km/h (0 Bft) 95,74 %
06.09.2018 21:36 17,1 C 15,6 C 15,6 C 88 % 1010,1 hPa 0,0 l/m 0 min 0 min 0 W/m 0,0 km/h (0 Bft) 95,65 %
06.09.2018 21:38 17,1 C 15,6 C 15,6 C 88 % 1010,1 hPa 0,0 l/m 0 min 0 min 0 W/m 0,0 km/h (0 Bft) 97,87 %
06.09.2018 21:40 17,0 C 15,6 C 15,6 C 89 % 1010,2 hPa 0,0 l/m 0 min 0 min 0 W/m 0,0 km/h (0 Bft) 97,87 %
06.09.2018 21:42 17,0 C 15,6 C 15,6 C 89 % 1010,1 hPa 0,0 l/m 0 min 0 min 0 W/m 0,0 km/h (0 Bft) 95,74 %
06.09.2018 21:44 16,9 C 15,6 C 15,6 C 89 % 1010,2 hPa 0,0 l/m 0 min 0 min 0 W/m 2,3 km/h (1 Bft) 95,74 %
06.09.2018 21:46 16,9 C 15,6 C 15,6 C 89 % 1010,1 hPa 0,0 l/m 0 min 0 min 0 W/m 2,3 km/h (1 Bft) 91,49 %
06.09.2018 21:48 16,9 C 15,6 C 15,6 C 89 % 1010,2 hPa 0,0 l/m 0 min 0 min 0 W/m 0,0 km/h (0 Bft) 97,83 %
06.09.2018 21:50 16,8 C 15,0 C 15,6 C 89 % 1010,2 hPa 0,0 l/m 0 min 0 min 0 W/m 0,0 km/h (0 Bft) 97,87 %
06.09.2018 21:52 16,8 C 15,0 C 15,6 C 89 % 1010,1 hPa 0,0 l/m 0 min 0 min 0 W/m 6,8 km/h (2 Bft) 97,87 %
06.09.2018 21:54 16,8 C 15,0 C 15,6 C 89 % 1010,2 hPa 0,0 l/m 0 min 0 min 0 W/m 4,5 km/h (1 Bft) 93,62 %
06.09.2018 21:56 16,7 C 15,0 C 15,6 C 89 % 1010,1 hPa 0,0 l/m 0 min 0 min 0 W/m 2,3 km/h (1 Bft) 95,74 %
06.09.2018 21:58 16,7 C 15,0 C 15,6 C 89 % 1010,2 hPa 0,0 l/m 0 min 0 min 0 W/m 0,0 km/h (0 Bft) 97,87 %
06.09.2018 22:00 16,7 C 15,0 C 15,6 C 89 % 1010,2 hPa 0,0 l/m 0 min 0 min 0 W/m 2,3 km/h (1 Bft) 95,65 %
06.09.2018 22:02 16,7 C 15,0 C 15,6 C 89 % 1010,2 hPa 0,0 l/m 0 min 0 min 0 W/m 2,3 km/h (1 Bft) 95,74 %
06.09.2018 22:04 16,6 C 15,0 C 15,6 C 89 % 1010,3 hPa 0,0 l/m 0 min 0 min 0 W/m 0,0 km/h (0 Bft) 95,74 %
06.09.2018 22:06 16,6 C 15,0 C 15,0 C 89 % 1010,2 hPa 0,0 l/m 0 min 0 min 0 W/m 0,0 km/h (0 Bft) 97,87 %
06.09.2018 22:08 16,6 C 15,0 C 15,0 C 90 % 1010,2 hPa 0,0 l/m 0 min 0 min 0 W/m 0,0 km/h (0 Bft) 97,87 %
06.09.2018 22:10 16,5 C 15,0 C 15,0 C 90 % 1010,2 hPa 0,0 l/m 0 min 0 min 0 W/m 2,3 km/h (1 Bft) 97,87 %
06.09.2018 22:12 16,5 C 15,0 C 15,0 C 90 % 1010,2 hPa 0,0 l/m 0 min 0 min 0 W/m 0,0 km/h (0 Bft) 95,65 %
06.09.2018 22:14 16,4 C 15,0 C 15,0 C 90 % 1010,2 hPa 0,0 l/m 0 min 0 min 0 W/m 0,0 km/h (0 Bft) 97,87 %
06.09.2018 22:16 16,4 C 15,0 C 15,0 C 90 % 1010,2 hPa 0,0 l/m 0 min 0 min 0 W/m 0,0 km/h (0 Bft) 97,87 %
06.09.2018 22:18 16,4 C 15,0 C 15,0 C 90 % 1010,2 hPa 0,0 l/m 0 min 0 min 0 W/m 2,3 km/h (1 Bft) 97,87 %
06.09.2018 22:20 16,4 C 15,0 C 15,0 C 90 % 1010,2 hPa 0,0 l/m 0 min 0 min 0 W/m 2,3 km/h (1 Bft) 97,87 %
06.09.2018 22:22 16,3 C 15,0 C 15,0 C 91 % 1010,1 hPa 0,0 l/m 0 min 0 min 0 W/m 2,3 km/h (1 Bft) 93,75 %
06.09.2018 22:24 16,3 C 15,0 C 15,0 C 91 % 1010,3 hPa 0,0 l/m 0 min 0 min 0 W/m 0,0 km/h (0 Bft) 97,83 %
06.09.2018 22:26 16,3 C 14,4 C 15,0 C 91 % 1010,2 hPa 0,0 l/m 0 min 0 min 0 W/m 4,5 km/h (1 Bft) 95,74 %
06.09.2018 22:28 16,3 C 14,4 C 15,0 C 91 % 1010,2 hPa 0,0 l/m 0 min 0 min 0 W/m 0,0 km/h (0 Bft) 95,74 %
06.09.2018 22:30 16,2 C 14,4 C 15,0 C 91 % 1010,2 hPa 0,0 l/m 0 min 0 min 0 W/m 2,3 km/h (1 Bft) 97,87 %
06.09.2018 22:32 16,2 C 14,4 C 15,0 C 91 % 1010,2 hPa 0,0 l/m 0 min 0 min 0 W/m 2,3 km/h (1 Bft) 95,74 %
06.09.2018 22:34 16,2 C 14,4 C 15,0 C 91 % 1010,2 hPa 0,0 l/m 0 min 0 min 0 W/m 2,3 km/h (1 Bft) 97,87 %
06.09.2018 22:36 16,1 C 14,4 C 15,0 C 91 % 1010,2 hPa 0,0 l/m 0 min 0 min 0 W/m 2,3 km/h (1 Bft) 97,83 %
06.09.2018 22:38 16,1 C 14,4 C 15,0 C 91 % 1010,3 hPa 0,0 l/m 0 min 0 min 0 W/m 2,3 km/h (1 Bft) 97,87 %
06.09.2018 22:40 16,1 C 14,4 C 15,0 C 91 % 1010,3 hPa 0,0 l/m 0 min 0 min 0 W/m 0,0 km/h (0 Bft) 97,87 %
06.09.2018 22:42 16,1 C 14,4 C 15,0 C 91 % 1010,3 hPa 0,0 l/m 0 min 0 min 0 W/m 0,0 km/h (0 Bft) 97,87 %
06.09.2018 22:44 16,0 C 14,4 C 15,0 C 91 % 1010,3 hPa 0,0 l/m 0 min 0 min 0 W/m 0,0 km/h (0 Bft) 97,87 %
06.09.2018 22:46 16,0 C 14,4 C 15,0 C 92 % 1010,3 hPa 0,0 l/m 0 min 0 min 0 W/m 0,0 km/h (0 Bft) 97,87 %
06.09.2018 22:48 16,0 C 14,4 C 15,0 C 92 % 1010,4 hPa 0,0 l/m 0 min 0 min 0 W/m 0,0 km/h (0 Bft) 100,00 %
06.09.2018 22:50 15,9 C 14,4 C 15,0 C 92 % 1010,4 hPa 0,0 l/m 0 min 0 min 0 W/m 0,0 km/h (0 Bft) 100,00 %
06.09.2018 22:52 15,9 C 14,4 C 15,0 C 92 % 1010,3 hPa 0,0 l/m 0 min 0 min 0 W/m 0,0 km/h (0 Bft) 97,87 %
06.09.2018 22:54 15,9 C 14,4 C 15,0 C 92 % 1010,3 hPa 0,0 l/m 0 min 0 min 0 W/m 0,0 km/h (0 Bft) 100,00 %
06.09.2018 22:56 15,9 C 14,4 C 15,0 C 92 % 1010,3 hPa 0,0 l/m 0 min 0 min 0 W/m 0,0 km/h (0 Bft) 100,00 %
06.09.2018 22:58 15,8 C 14,4 C 15,0 C 92 % 1010,4 hPa 0,0 l/m 0 min 0 min 0 W/m 0,0 km/h (0 Bft) 100,00 %
06.09.2018 23:00 15,8 C 14,4 C 14,4 C 92 % 1010,4 hPa 0,0 l/m 0 min 0 min 0 W/m 0,0 km/h (0 Bft) 100,00 %
06.09.2018 23:02 15,8 C 14,4 C 14,4 C 92 % 1010,4 hPa 0,0 l/m 0 min 0 min 0 W/m 0,0 km/h (0 Bft) 100,00 %
06.09.2018 23:04 15,8 C 14,4 C 14,4 C 92 % 1010,3 hPa 0,0 l/m 0 min 0 min 0 W/m 0,0 km/h (0 Bft) 100,00 %
06.09.2018 23:06 15,7 C 13,9 C 14,4 C 92 % 1010,3 hPa 0,0 l/m 0 min 0 min 0 W/m 0,0 km/h (0 Bft) 100,00 %
06.09.2018 23:08 15,7 C 13,9 C 14,4 C 92 % 1010,3 hPa 0,0 l/m 0 min 0 min 0 W/m 0,0 km/h (0 Bft) 100,00 %
06.09.2018 23:10 15,7 C 13,9 C 14,4 C 92 % 1010,4 hPa 0,0 l/m 0 min 0 min 0 W/m 0,0 km/h (0 Bft) 100,00 %
06.09.2018 23:12 15,7 C 13,9 C 14,4 C 92 % 1010,4 hPa 0,0 l/m 0 min 0 min 0 W/m 0,0 km/h (0 Bft) 97,87 %
06.09.2018 23:14 15,6 C 13,9 C 14,4 C 92 % 1010,5 hPa 0,0 l/m 0 min 0 min 0 W/m 0,0 km/h (0 Bft) 100,00 %
06.09.2018 23:16 15,6 C 13,9 C 14,4 C 92 % 1010,5 hPa 0,0 l/m 0 min 0 min 0 W/m 0,0 km/h (0 Bft) 100,00 %
06.09.2018 23:18 15,6 C 14,4 C 14,4 C 92 % 1010,4 hPa 0,0 l/m 0 min 0 min 0 W/m 0,0 km/h (0 Bft) 100,00 %
06.09.2018 23:20 15,6 C 14,4 C 14,4 C 92 % 1010,5 hPa 0,0 l/m 0 min 0 min 0 W/m 0,0 km/h (0 Bft) 100,00 %
06.09.2018 23:22 15,6 C 14,4 C 14,4 C 92 % 1010,5 hPa 0,0 l/m 0 min 0 min 0 W/m 2,3 km/h (1 Bft) 100,00 %
06.09.2018 23:24 15,5 C 14,4 C 14,4 C 92 % 1010,5 hPa 0,0 l/m 0 min 0 min 0 W/m 0,0 km/h (0 Bft) 97,87 %
06.09.2018 23:26 15,5 C 13,9 C 14,4 C 93 % 1010,6 hPa 0,0 l/m 0 min 0 min 0 W/m 0,0 km/h (0 Bft) 100,00 %
06.09.2018 23:28 15,4 C 13,9 C 14,4 C 93 % 1010,6 hPa 0,0 l/m 0 min 0 min 0 W/m 0,0 km/h (0 Bft) 100,00 %
06.09.2018 23:30 15,4 C 13,9 C 14,4 C 93 % 1010,6 hPa 0,0 l/m 0 min 0 min 0 W/m 0,0 km/h (0 Bft) 97,87 %
06.09.2018 23:32 15,4 C 13,9 C 14,4 C 93 % 1010,6 hPa 0,0 l/m 0 min 0 min 0 W/m 0,0 km/h (0 Bft) 100,00 %
06.09.2018 23:34 15,4 C 13,9 C 14,4 C 93 % 1010,6 hPa 0,0 l/m 0 min 0 min 0 W/m 0,0 km/h (0 Bft) 100,00 %
06.09.2018 23:36 15,4 C 13,9 C 14,4 C 93 % 1010,6 hPa 0,0 l/m 0 min 0 min 0 W/m 0,0 km/h (0 Bft) 100,00 %
06.09.2018 23:38 15,4 C 13,9 C 14,4 C 93 % 1010,6 hPa 0,0 l/m 0 min 0 min 0 W/m 0,0 km/h (0 Bft) 100,00 %
06.09.2018 23:40 15,3 C 13,9 C 14,4 C 93 % 1010,6 hPa 0,0 l/m 0 min 0 min 0 W/m 0,0 km/h (0 Bft) 100,00 %
06.09.2018 23:42 15,3 C 13,9 C 14,4 C 93 % 1010,6 hPa 0,0 l/m 0 min 0 min 0 W/m 0,0 km/h (0 Bft) 100,00 %
06.09.2018 23:44 15,3 C 13,9 C 14,4 C 93 % 1010,5 hPa 0,0 l/m 0 min 0 min 0 W/m 0,0 km/h (0 Bft) 97,83 %
06.09.2018 23:46 15,3 C 14,4 C 14,4 C 93 % 1010,5 hPa 0,0 l/m 0 min 0 min 0 W/m 0,0 km/h (0 Bft) 97,92 %
06.09.2018 23:48 15,3 C 14,4 C 14,4 C 93 % 1010,6 hPa 0,0 l/m 0 min 0 min 0 W/m 0,0 km/h (0 Bft) 95,74 %
06.09.2018 23:50 15,3 C 14,4 C 14,4 C 94 % 1010,5 hPa 0,0 l/m 0 min 0 min 0 W/m 0,0 km/h (0 Bft) 95,74 %
06.09.2018 23:52 15,3 C 14,4 C 14,4 C 94 % 1010,5 hPa 0,0 l/m 0 min 0 min 0 W/m 0,0 km/h (0 Bft) 95,74 %
06.09.2018 23:54 15,3 C 14,4 C 14,4 C 94 % 1010,5 hPa 0,0 l/m 0 min 0 min 0 W/m 0,0 km/h (0 Bft) 97,87 %
06.09.2018 23:56 15,3 C 14,4 C 14,4 C 94 % 1010,5 hPa 0,0 l/m 0 min 0 min 0 W/m 0,0 km/h (0 Bft) 97,83 %
06.09.2018 23:58 15,3 C 14,4 C 14,4 C 94 % 1010,5 hPa 0,0 l/m 0 min 0 min 0 W/m 0,0 km/h (0 Bft) 97,87 %
_ Min-Zeit 23:40 23:06 23:00 00:32 18:06 - - - - 00:00 08:28
Minimum _ 15,3 C 13,9 C 14,4 C 78 % 1008,6 hPa - - - - 0,0 km/h (0 Bft) 91,30 %
_ Max-Zeit 16:56 14:32 16:46 09:34 01:20 01:34 14:04 04:05 14:32 20:06 00:28
Maximum _ 21,9 C 23,9 C 20,6 C 99 % 1012,9 hPa 0,8 l/m 2 min 5 min 700 W/m 20,3 km/h
N (4 Bft)
100,00 %
Durchschnitt _ 18,7 C 17,9 C 17,2 C 92 % 1010,5 hPa #13,2 l/m #1:50 h #5:51 h 136 W/m 3,2 km/h (1 Bft) 97,62 %
© 2018 W. Hausmann